M I D A S
Marine Information and Data Acquisition System
Tripno 1848 of the Zeeleeuw from 2010-03-24 07:33:29 to 2010-03-24 13:09:19
Back to CruiseResearch ActivitiesStationsMapUnderway DataData graphs

EquipmentUnitsComment
TimeDGPSUTC
LatitudeDGPSDM.mWGS84
LongitudeDGPSDM.mWGS84
TemperatureSBE03/SBE38deg celciusITS90
ConductivitySBE21S/mITS90
SalinitySBE21 Practical Salinity Units
ChlorophylAChelsea fluorimeterg/lCalibrated in Aceton
Missing or incorrect values are displayed as -999
Sea surface data collected by the RV Zeeleeuw from 2010-03-24 07:34:48 to 2010-03-24 13:20:32
                                                                                    Next 1000 lines
Time Latitude Longitude Temperature Conductivity Salinity ChlorophylA
2010-03-24 07:34:58 51°13.661 2°55.962 15.5521 0.068141 0.375749 -1.139864
2010-03-24 07:35:03 51°13.662 2°55.962 15.5681 0.068141 0.375755 -1.139864
2010-03-24 07:35:08 51°13.661 2°55.962 15.5956 0.068141 0.375762 -1.139864
2010-03-24 07:35:13 51°13.661 2°55.962 15.5725 0.068141 0.375762 -1.139864
2010-03-24 07:35:18 51°13.662 2°55.962 15.5723 0.068141 0.375769 -1.139864
2010-03-24 07:35:23 51°13.662 2°55.962 15.5796 0.068141 0.375775 -1.139864
2010-03-24 07:35:28 51°13.662 2°55.962 15.5803 0.068141 0.375775 -1.139864
2010-03-24 07:35:33 51°13.662 2°55.962 15.5798 0.068141 0.375775 -1.139864
2010-03-24 07:35:38 51°13.662 2°55.962 15.5823 0.068141 0.375775 -1.139864
2010-03-24 07:35:43 51°13.662 2°55.962 15.598 0.068141 0.375775 -1.139864
2010-03-24 07:35:48 51°13.662 2°55.962 15.6671 0.068141 0.375775 -1.139864
2010-03-24 07:35:53 51°13.662 2°55.962 15.6687 0.068141 0.375775 -1.139864
2010-03-24 07:35:58 51°13.662 2°55.962 15.6373 0.068141 0.375775 -1.139864
2010-03-24 07:36:03 51°13.662 2°55.962 15.6086 0.068141 0.375775 -1.139864
2010-03-24 07:36:08 51°13.662 2°55.962 15.608 0.068141 0.375775 -1.139864
2010-03-24 07:36:13 51°13.662 2°55.962 15.6022 0.068141 0.375782 -1.139864
2010-03-24 07:36:18 51°13.662 2°55.962 15.5987 0.068141 0.375782 -1.139864
2010-03-24 07:36:23 51°13.662 2°55.962 15.5831 0.068141 0.375782 -1.139864
2010-03-24 07:36:28 51°13.662 2°55.962 15.5799 0.068141 0.375782 -1.139864
2010-03-24 07:36:33 51°13.662 2°55.962 15.5796 0.068141 0.375789 -1.139864
2010-03-24 07:36:38 51°13.662 2°55.962 15.5782 0.068141 0.375789 -1.139864
2010-03-24 07:36:43 51°13.662 2°55.962 15.6086 0.068141 0.375789 -1.139864
2010-03-24 07:36:48 51°13.662 2°55.962 15.5942 0.068141 0.375796 -1.139864
2010-03-24 07:36:53 51°13.662 2°55.962 15.6029 0.068141 0.375796 -1.139864
2010-03-24 07:36:58 51°13.662 2°55.962 15.6116 0.068141 0.375796 -1.139864
2010-03-24 07:37:03 51°13.662 2°55.962 15.6443 0.068141 0.375796 -1.139864
2010-03-24 07:37:08 51°13.662 2°55.962 15.6256 0.068141 0.375802 -1.139864
2010-03-24 07:37:13 51°13.661 2°55.962 15.6283 0.068141 0.375802 -1.139864
2010-03-24 07:37:18 51°13.661 2°55.962 15.6217 0.068141 0.375802 -1.139864
2010-03-24 07:37:23 51°13.661 2°55.962 15.5864 0.068141 0.375809 -1.139864
2010-03-24 07:37:28 51°13.661 2°55.962 15.4272 0.068141 0.375809 -1.139864
2010-03-24 07:37:33 51°13.661 2°55.961 15.4536 0.068141 0.375809 -1.139864
2010-03-24 07:37:38 51°13.661 2°55.96 15.5658 0.068141 0.375802 -1.139864
2010-03-24 07:37:43 51°13.662 2°55.958 15.4933 0.068141 0.375809 -1.139864
2010-03-24 07:37:48 51°13.662 2°55.956 15.5097 0.068141 0.375809 -1.139864
2010-03-24 07:37:53 51°13.663 2°55.953 15.5618 0.068141 0.375809 -1.139864
2010-03-24 07:37:58 51°13.664 2°55.95 15.5561 0.068141 0.375809 -1.139864
2010-03-24 07:38:03 51°13.665 2°55.946 15.5642 0.068141 0.375809 -1.139864
2010-03-24 07:38:09 51°13.666 2°55.941 15.5346 0.068141 0.375816 -1.139864
2010-03-24 07:38:14 51°13.668 2°55.937 15.5951 0.068141 0.375816 -1.139864
2010-03-24 07:38:20 51°13.669 2°55.931 15.5584 0.068141 0.375822 -1.139864
2010-03-24 07:38:26 51°13.671 2°55.925 15.5877 0.068141 0.375822 -1.139864
2010-03-24 07:38:32 51°13.673 2°55.918 15.6288 0.068141 0.375822 -1.139864
2010-03-24 07:38:37 51°13.674 2°55.912 15.5937 0.068141 0.375822 -1.139864
2010-03-24 07:38:41 51°13.675 2°55.907 15.6232 0.068141 0.375829 -1.139864
2010-03-24 07:38:47 51°13.677 2°55.899 15.6 0.068141 0.375829 -1.139864
2010-03-24 07:38:52 51°13.678 2°55.892 15.6105 0.068141 0.375829 -1.139864
2010-03-24 07:38:57 51°13.68 2°55.884 15.5849 0.068141 0.375829 -1.139864
2010-03-24 07:39:01 51°13.681 2°55.879 15.5894 0.068141 0.375829 -1.139864
2010-03-24 07:39:07 51°13.682 2°55.87 15.5919 0.068141 0.375829 -1.139864
2010-03-24 07:39:12 51°13.683 2°55.862 15.6034 0.068141 0.375836 -1.139864
2010-03-24 07:39:17 51°13.685 2°55.854 15.5917 0.068141 0.375836 -1.139864
2010-03-24 07:39:21 51°13.686 2°55.847 15.5944 0.068141 0.375843 -1.139864
2010-03-24 07:39:27 51°13.687 2°55.836 15.6017 0.068141 0.375843 -1.139864
2010-03-24 07:39:32 51°13.689 2°55.827 15.6015 0.068141 0.375843 -1.139864
2010-03-24 07:39:37 51°13.69 2°55.816 15.6183 0.068141 0.375829 -1.139864
2010-03-24 07:39:41 51°13.691 2°55.808 15.6924 0.068141 0.375822 -1.139864
2010-03-24 07:39:47 51°13.693 2°55.797 15.7028 0.068141 0.375816 -1.139864
2010-03-24 07:39:52 51°13.694 2°55.788 15.6782 0.068141 0.375822 -1.139864
2010-03-24 07:39:57 51°13.695 2°55.779 15.6384 0.068141 0.375836 -1.139864
2010-03-24 07:40:01 51°13.695 2°55.772 15.6363 0.068141 0.375836 -1.139864
2010-03-24 07:40:06 51°13.695 2°55.764 15.6269 0.068141 0.375849 -1.139864
2010-03-24 07:40:11 51°13.696 2°55.756 15.6284 0.068141 0.375863 -1.139864
2010-03-24 07:40:16 51°13.696 2°55.749 15.6252 0.068141 0.37587 -1.139864
2010-03-24 07:40:21 51°13.697 2°55.743 15.6299 0.068141 0.375876 -1.139864
2010-03-24 07:40:26 51°13.697 2°55.738 15.6755 0.068141 0.37587 -1.139864
2010-03-24 07:40:31 51°13.698 2°55.735 15.7715 0.068141 0.37587 -1.139864
2010-03-24 07:40:36 51°13.698 2°55.734 15.7965 0.068141 0.375863 -1.139864
2010-03-24 07:40:41 51°13.699 2°55.735 15.8139 0.068141 0.375856 -1.139864
2010-03-24 07:40:46 51°13.7 2°55.737 15.799 0.068141 0.37589 -1.139864
2010-03-24 07:40:50 51°13.702 2°55.74 15.8046 0.068141 0.375944 -1.139864
2010-03-24 07:40:55 51°13.704 2°55.742 15.765 0.068141 0.375971 -1.139864
2010-03-24 07:41:00 51°13.706 2°55.745 15.7518 0.068141 0.375971 -1.139864
2010-03-24 07:41:05 51°13.708 2°55.748 15.6806 0.068141 0.375971 -1.139864
2010-03-24 07:41:10 51°13.71 2°55.75 15.653 0.068141 0.375937 -1.139864
2010-03-24 07:41:15 51°13.713 2°55.752 15.4437 0.068141 0.375896 -1.139864
2010-03-24 07:41:20 51°13.715 2°55.753 15.6393 0.068141 0.375829 -1.139864
2010-03-24 07:41:25 51°13.717 2°55.754 15.6542 0.068141 0.375796 -1.139864
2010-03-24 07:41:29 51°13.717 2°55.754 15.6396 0.068141 0.375796 -1.139864
2010-03-24 07:41:34 51°13.718 2°55.754 15.4616 0.068141 0.375782 -1.139864
2010-03-24 07:41:39 51°13.717 2°55.754 15.5995 0.068141 0.375809 -1.139864
2010-03-24 07:41:44 51°13.716 2°55.754 15.6713 0.068141 0.375843 -1.139864
2010-03-24 07:41:49 51°13.715 2°55.753 15.6553 0.068141 0.375876 -1.139864
2010-03-24 07:41:54 51°13.713 2°55.752 15.6774 0.068141 0.375903 -1.139864
2010-03-24 07:41:59 51°13.712 2°55.752 15.6717 0.068141 0.375903 -1.139864
2010-03-24 07:42:05 51°13.711 2°55.751 15.6998 0.068141 0.375917 -1.139864
2010-03-24 07:42:10 51°13.711 2°55.751 15.6985 0.068141 0.375917 -1.139864
2010-03-24 07:42:16 51°13.713 2°55.751 15.7545 0.068141 0.37591 -1.139864
2010-03-24 07:42:21 51°13.715 2°55.75 15.763 0.068141 0.37591 -1.139864
2010-03-24 07:42:27 51°13.718 2°55.749 15.7607 0.068141 0.375903 -1.139864
2010-03-24 07:42:32 51°13.721 2°55.747 15.7679 0.068141 0.375903 -1.139864
2010-03-24 07:42:37 51°13.725 2°55.744 15.7591 0.068141 0.375903 -1.139864
2010-03-24 07:42:41 51°13.729 2°55.741 15.7368 0.068141 0.37591 -1.139864
2010-03-24 07:42:46 51°13.734 2°55.737 15.7154 0.068141 0.375917 -1.139864
2010-03-24 07:42:51 51°13.739 2°55.731 15.65 0.068141 0.375917 -1.139864
2010-03-24 07:42:56 51°13.745 2°55.725 15.5705 0.068141 0.375917 -1.139864
2010-03-24 07:43:01 51°13.751 2°55.718 15.496 0.068141 0.375917 -1.139864
2010-03-24 07:43:05 51°13.756 2°55.712 15.5161 0.068141 0.37591 -1.139864
2010-03-24 07:43:10 51°13.763 2°55.706 15.3622 0.068141 0.37591 -1.139864
2010-03-24 07:43:15 51°13.77 2°55.698 15.3667 0.068141 0.375896 -1.139864
2010-03-24 07:43:20 51°13.778 2°55.691 15.4309 0.068141 0.375903 -1.139864
2010-03-24 07:43:25 51°13.785 2°55.683 15.4147 0.068141 0.375896 -1.139864
2010-03-24 07:43:30 51°13.793 2°55.676 15.4002 0.068141 0.375896 -1.139864
2010-03-24 07:43:35 51°13.801 2°55.668 15.3677 0.068141 0.375903 -1.139864
2010-03-24 07:43:39 51°13.808 2°55.662 15.3881 0.068141 0.37591 -1.139864
2010-03-24 07:43:45 51°13.819 2°55.653 15.3896 0.068141 0.37591 -1.139864
2010-03-24 07:43:49 51°13.826 2°55.647 15.4093 0.068141 0.375917 -1.139864
2010-03-24 07:43:54 51°13.834 2°55.638 15.4161 0.068141 0.375923 -1.139864
2010-03-24 07:43:59 51°13.843 2°55.631 15.5186 0.068141 0.375923 -1.139864
2010-03-24 07:44:04 51°13.853 2°55.624 15.5473 0.068141 0.37593 -1.139864
2010-03-24 07:44:09 51°13.862 2°55.617 15.5404 0.068141 0.375937 -1.139864
2010-03-24 07:44:13 51°13.87 2°55.611 15.5188 0.068141 0.375937 -1.139864
2010-03-24 07:44:18 51°13.88 2°55.603 15.5161 0.068141 0.375937 -1.139864
2010-03-24 07:44:23 51°13.89 2°55.596 15.5189 0.068141 0.375944 -1.139864
2010-03-24 07:44:28 51°13.9 2°55.588 15.5163 0.068141 0.375944 -1.139864
2010-03-24 07:44:33 51°13.911 2°55.58 15.5007 0.068141 0.375944 -1.139864
2010-03-24 07:44:38 51°13.921 2°55.572 15.5087 0.068141 0.375944 -1.139864
2010-03-24 07:44:43 51°13.932 2°55.564 15.4091 0.068141 0.375944 -1.139864
2010-03-24 07:44:48 51°13.943 2°55.555 15.4982 0.068141 0.375944 -1.139864
2010-03-24 07:44:53 51°13.954 2°55.548 15.4279 0.068141 0.375944 -1.139864
2010-03-24 07:44:58 51°13.965 2°55.539 15.447 0.068141 0.375944 -1.139864
2010-03-24 07:45:03 51°13.976 2°55.532 15.4897 0.068038 0.375357 -1.139864
2010-03-24 07:45:08 51°13.988 2°55.523 15.4811 0.068141 0.375944 -1.139864
2010-03-24 07:45:13 51°13.999 2°55.516 15.4429 0.068141 0.37595 -1.139864
2010-03-24 07:45:18 51°14.01 2°55.508 15.4632 0.068141 0.37595 -1.139864
2010-03-24 07:45:23 51°14.022 2°55.501 15.5221 0.068038 0.375371 -1.139864
2010-03-24 07:45:28 51°14.033 2°55.493 15.5406 0.068038 0.375371 -1.139864
2010-03-24 07:45:33 51°14.044 2°55.485 15.5571 0.068038 0.375371 -1.139864
2010-03-24 07:45:38 51°14.056 2°55.478 15.5473 0.068038 0.375377 -1.139864
2010-03-24 07:45:43 51°14.067 2°55.47 15.526 0.068038 0.375377 -1.139864
2010-03-24 07:45:48 51°14.078 2°55.461 15.4774 0.068141 0.375957 -1.139864
2010-03-24 07:45:53 51°14.089 2°55.452 15.4874 0.068038 0.375371 -1.174688
2010-03-24 07:45:58 51°14.1 2°55.444 15.4178 0.068038 0.375371 -1.174688
2010-03-24 07:46:03 51°14.111 2°55.436 15.3951 0.068038 0.375357 -1.139864
2010-03-24 07:46:08 51°14.122 2°55.428 15.4622 0.068038 0.375357 -1.139864
2010-03-24 07:46:13 51°14.134 2°55.421 15.5356 0.068038 0.375364 -1.139864
2010-03-24 07:46:18 51°14.145 2°55.413 15.5922 0.068038 0.375371 -1.139864
2010-03-24 07:46:23 51°14.156 2°55.405 15.6313 0.068141 0.375964 -1.139864
2010-03-24 07:46:28 51°14.167 2°55.396 15.6096 0.068141 0.375964 -1.139864
2010-03-24 07:46:33 51°14.178 2°55.387 15.6053 0.068038 0.375384 -1.139864
2010-03-24 07:46:38 51°14.19 2°55.377 15.6151 0.068038 0.375377 -1.139864
2010-03-24 07:46:43 51°14.201 2°55.368 15.6058 0.068038 0.375377 -1.139864
2010-03-24 07:46:48 51°14.212 2°55.357 15.6273 0.068038 0.375377 -1.139864
2010-03-24 07:46:53 51°14.224 2°55.346 15.6101 0.068038 0.375377 -1.139864
2010-03-24 07:46:58 51°14.236 2°55.334 15.4319 0.068038 0.375377 -1.139864
2010-03-24 07:47:03 51°14.248 2°55.321 15.3787 0.068038 0.375377 -1.139864
2010-03-24 07:47:08 51°14.26 2°55.309 15.355 0.068038 0.375371 -1.139864
2010-03-24 07:47:13 51°14.273 2°55.297 15.3954 0.068038 0.375371 -1.139864
2010-03-24 07:47:18 51°14.286 2°55.285 15.4498 0.068038 0.375377 -1.139864
2010-03-24 07:47:23 51°14.298 2°55.272 15.4552 0.068038 0.375384 -1.139864
2010-03-24 07:47:28 51°14.311 2°55.258 15.3241 0.068038 0.375384 -1.139864
2010-03-24 07:47:33 51°14.324 2°55.245 15.3681 0.068038 0.375384 -1.139864
2010-03-24 07:47:38 51°14.337 2°55.232 15.3617 0.068038 0.375384 -1.139864
2010-03-24 07:47:43 51°14.35 2°55.218 15.4857 0.068038 0.375384 -1.139864
2010-03-24 07:47:48 51°14.363 2°55.205 15.4912 0.068038 0.375384 -1.139864
2010-03-24 07:47:53 51°14.376 2°55.192 15.4851 0.068038 0.375391 -1.139864
2010-03-24 07:47:58 51°14.389 2°55.178 15.3476 0.068038 0.375391 -1.139864
2010-03-24 07:48:03 51°14.402 2°55.164 15.4266 0.068038 0.375384 -1.139864
2010-03-24 07:48:08 51°14.415 2°55.15 15.4078 0.068038 0.375384 -1.139864
2010-03-24 07:48:13 51°14.428 2°55.136 15.4146 0.068038 0.375384 -1.139864
2010-03-24 07:48:18 51°14.442 2°55.122 15.3767 0.068038 0.375384 -1.139864
2010-03-24 07:48:23 51°14.456 2°55.107 15.3131 0.068038 0.375391 -1.139864
2010-03-24 07:48:28 51°14.47 2°55.093 15.1712 0.068038 0.375391 -1.139864
2010-03-24 07:48:33 51°14.484 2°55.077 15.3696 0.068038 0.375391 -1.139864
2010-03-24 07:48:38 51°14.498 2°55.063 15.3606 0.068038 0.375391 -1.139864
2010-03-24 07:48:43 51°14.513 2°55.047 15.4815 0.068038 0.375398 -1.139864
2010-03-24 07:48:48 51°14.527 2°55.03 15.364 0.068038 0.375404 -1.139864
2010-03-24 07:48:53 51°14.54 2°55.013 15.3868 0.068038 0.375404 -1.139864
2010-03-24 07:48:58 51°14.554 2°54.995 15.4947 0.068038 0.375404 -1.139864
2010-03-24 07:49:03 51°14.568 2°54.977 15.5486 0.068038 0.375398 -1.139864
2010-03-24 07:49:08 51°14.582 2°54.958 15.6093 0.068038 0.375404 -1.139864
2010-03-24 07:49:13 51°14.594 2°54.938 15.6533 0.068038 0.375418 -1.139864
2010-03-24 07:49:18 51°14.605 2°54.917 15.6412 0.068038 0.375418 -1.139864
2010-03-24 07:49:23 51°14.616 2°54.893 15.4883 0.068038 0.375431 -1.139864
2010-03-24 07:49:28 51°14.625 2°54.869 15.5393 0.068038 0.375431 -1.139864
2010-03-24 07:49:33 51°14.634 2°54.843 15.4634 0.068038 0.375424 -1.139864
2010-03-24 07:49:38 51°14.642 2°54.817 15.5074 0.068038 0.375418 -1.139864
2010-03-24 07:49:43 51°14.649 2°54.79 15.6072 0.068038 0.375404 -1.139864
2010-03-24 07:49:48 51°14.656 2°54.763 15.611 0.068038 0.375411 -1.139864
2010-03-24 07:49:53 51°14.661 2°54.735 15.6423 0.068038 0.375418 -1.139864
2010-03-24 07:49:58 51°14.666 2°54.708 15.6335 0.068038 0.375418 -1.139864
2010-03-24 07:50:03 51°14.668 2°54.679 15.644 0.068038 0.375431 -1.139864
2010-03-24 07:50:08 51°14.669 2°54.651 15.6386 0.068038 0.375438 -1.139864
2010-03-24 07:50:13 51°14.669 2°54.623 15.6454 0.068038 0.375445 -1.139864
2010-03-24 07:50:18 51°14.667 2°54.594 15.6319 0.068038 0.375445 -1.139864
2010-03-24 07:50:23 51°14.663 2°54.567 15.6044 0.068038 0.375438 -1.174688
2010-03-24 07:50:28 51°14.658 2°54.54 15.5169 0.068038 0.375438 -1.174688
2010-03-24 07:50:33 51°14.651 2°54.514 15.5558 0.068038 0.375438 -1.139864
2010-03-24 07:50:38 51°14.644 2°54.488 15.4596 0.068038 0.375431 -1.139864
2010-03-24 07:50:43 51°14.635 2°54.463 15.4504 0.068038 0.375424 -1.139864
2010-03-24 07:50:48 51°14.626 2°54.439 15.4379 0.068038 0.375418 -1.139864
2010-03-24 07:50:53 51°14.617 2°54.416 15.4331 0.068038 0.375424 -1.139864
2010-03-24 07:50:58 51°14.606 2°54.393 15.3282 0.068038 0.375424 -1.139864
2010-03-24 07:51:03 51°14.596 2°54.369 15.389 0.068038 0.375418 -1.139864
2010-03-24 07:51:08 51°14.585 2°54.347 15.1241 0.068038 0.375424 -1.139864
2010-03-24 07:51:13 51°14.575 2°54.324 15.3262 0.068038 0.375418 -1.139864
2010-03-24 07:51:18 51°14.564 2°54.301 15.1218 0.068038 0.375424 -1.139864
2010-03-24 07:51:23 51°14.554 2°54.278 15.3203 0.068038 0.375431 -1.139864
2010-03-24 07:51:28 51°14.544 2°54.255 15.3069 0.068038 0.375431 -1.139864
2010-03-24 07:51:33 51°14.534 2°54.232 15.273 0.068038 0.375438 -1.139864
2010-03-24 07:51:38 51°14.524 2°54.209 15.2287 0.068038 0.375438 -1.139864
2010-03-24 07:51:43 51°14.514 2°54.185 15.3416 0.068038 0.375445 -1.139864
2010-03-24 07:51:48 51°14.504 2°54.162 15.306 0.068038 0.375438 -1.139864
2010-03-24 07:51:53 51°14.494 2°54.138 15.362 0.068038 0.375438 -1.139864
2010-03-24 07:51:58 51°14.484 2°54.115 15.3139 0.068038 0.375438 -1.139864
2010-03-24 07:52:03 51°14.474 2°54.091 15.2505 0.068038 0.375445 -1.139864
2010-03-24 07:52:08 51°14.465 2°54.068 15.3588 0.068038 0.375445 -1.139864
2010-03-24 07:52:13 51°14.455 2°54.044 15.369 0.068038 0.375451 -1.139864
2010-03-24 07:52:18 51°14.445 2°54.021 15.373 0.068038 0.375458 -1.139864
2010-03-24 07:52:23 51°14.435 2°53.997 15.3633 0.068038 0.375465 -1.174688
2010-03-24 07:52:28 51°14.425 2°53.974 15.2832 0.068038 0.375465 -1.174688
2010-03-24 07:52:33 51°14.414 2°53.951 15.3203 0.068038 0.375465 -1.139864
2010-03-24 07:52:38 51°14.404 2°53.928 15.319 0.068038 0.375472 -1.139864
2010-03-24 07:52:43 51°14.393 2°53.905 15.3241 0.068038 0.375472 -1.139864
2010-03-24 07:52:48 51°14.383 2°53.882 15.3592 0.068038 0.375472 -1.139864
2010-03-24 07:52:53 51°14.372 2°53.859 15.3291 0.068038 0.375472 -1.139864
2010-03-24 07:52:58 51°14.361 2°53.836 15.374 0.068038 0.375472 -1.139864
2010-03-24 07:53:03 51°14.351 2°53.813 15.3524 0.068038 0.375465 -1.139864
2010-03-24 07:53:08 51°14.34 2°53.791 15.351 0.068038 0.375472 -1.174688
2010-03-24 07:53:13 51°14.329 2°53.768 15.3695 0.068038 0.375472 -1.174688
2010-03-24 07:53:18 51°14.318 2°53.746 15.3846 0.068038 0.375478 -1.139864
2010-03-24 07:53:23 51°14.307 2°53.723 15.3581 0.068038 0.375478 -1.139864
2010-03-24 07:53:28 51°14.297 2°53.7 15.375 0.068038 0.375478 -1.139864
2010-03-24 07:53:33 51°14.286 2°53.677 15.3015 0.068038 0.375492 -1.139864
2010-03-24 07:53:38 51°14.276 2°53.654 15.2559 0.068038 0.375492 -1.139864
2010-03-24 07:53:43 51°14.265 2°53.631 15.3466 0.068038 0.375485 -1.139864
2010-03-24 07:53:48 51°14.254 2°53.607 15.2498 0.068038 0.375498 -1.139864
2010-03-24 07:53:53 51°14.243 2°53.584 15.3445 0.068038 0.375492 -1.139864
2010-03-24 07:53:58 51°14.233 2°53.561 15.3039 0.068038 0.375492 -1.139864
2010-03-24 07:54:03 51°14.222 2°53.538 15.3471 0.068038 0.375498 -1.139864
2010-03-24 07:54:08 51°14.211 2°53.514 15.3585 0.068038 0.375498 -1.139864
2010-03-24 07:54:13 51°14.201 2°53.491 15.3679 0.068038 0.375498 -1.139864
2010-03-24 07:54:18 51°14.19 2°53.468 15.373 0.068038 0.375498 -1.139864
2010-03-24 07:54:23 51°14.179 2°53.445 15.3632 0.068038 0.375505 -1.139864
2010-03-24 07:54:28 51°14.168 2°53.422 15.3572 0.068038 0.375505 -1.139864
2010-03-24 07:54:33 51°14.158 2°53.398 15.3639 0.068038 0.375505 -1.139864
2010-03-24 07:54:38 51°14.147 2°53.375 15.3719 0.068038 0.375512 -1.174688
2010-03-24 07:54:43 51°14.137 2°53.352 15.3565 0.068038 0.375519 -1.139864
2010-03-24 07:54:48 51°14.126 2°53.329 15.2947 0.068038 0.375519 -1.139864
2010-03-24 07:54:53 51°14.115 2°53.306 15.4003 0.068038 0.375525 -1.139864
2010-03-24 07:54:58 51°14.105 2°53.283 15.3365 0.068038 0.375525 -1.139864
2010-03-24 07:55:03 51°14.094 2°53.26 15.3806 0.068038 0.375525 -1.139864
2010-03-24 07:55:08 51°14.083 2°53.237 15.2101 0.068038 0.375532 -1.139864
2010-03-24 07:55:13 51°14.072 2°53.214 15.3208 0.068038 0.375525 -1.139864
2010-03-24 07:55:18 51°14.062 2°53.19 15.319 0.068038 0.375525 -1.139864
2010-03-24 07:55:23 51°14.053 2°53.166 15.2625 0.068038 0.375525 -1.139864
2010-03-24 07:55:28 51°14.043 2°53.142 15.3562 0.068038 0.375525 -1.139864
2010-03-24 07:55:33 51°14.034 2°53.117 15.2747 0.068038 0.375539 -1.139864
2010-03-24 07:55:38 51°14.024 2°53.092 15.3664 0.068038 0.375539 -1.139864
2010-03-24 07:55:43 51°14.015 2°53.068 15.3527 0.068038 0.375539 -1.139864
2010-03-24 07:55:48 51°14.006 2°53.043 15.3809 0.068038 0.375546 -1.174688
2010-03-24 07:55:53 51°13.997 2°53.018 15.3895 0.068038 0.375546 -1.139864
2010-03-24 07:55:58 51°13.988 2°52.993 15.406 0.068038 0.375546 -1.139864
2010-03-24 07:56:03 51°13.979 2°52.968 15.3359 0.068038 0.375552 -1.139864
2010-03-24 07:56:08 51°13.97 2°52.943 15.3846 0.068038 0.375552 -1.139864
2010-03-24 07:56:13 51°13.961 2°52.918 15.3493 0.068038 0.375552 -1.174688
2010-03-24 07:56:18 51°13.952 2°52.894 15.3582 0.068038 0.375566 -1.139864
2010-03-24 07:56:23 51°13.943 2°52.869 15.2804 0.068038 0.375559 -1.139864
2010-03-24 07:56:28 51°13.934 2°52.844 15.3754 0.068038 0.375559 -1.139864
2010-03-24 07:56:33 51°13.925 2°52.819 15.2697 0.068038 0.375566 -1.139864
2010-03-24 07:56:38 51°13.916 2°52.795 15.3998 0.068038 0.375566 -1.139864
2010-03-24 07:56:43 51°13.907 2°52.77 15.3343 0.068038 0.375572 -1.139864
2010-03-24 07:56:48 51°13.898 2°52.745 15.3927 0.068038 0.375572 -1.174688
2010-03-24 07:56:53 51°13.889 2°52.72 15.2896 0.068038 0.375572 -1.139864
2010-03-24 07:56:58 51°13.88 2°52.695 15.3947 0.068038 0.375572 -1.139864
2010-03-24 07:57:03 51°13.871 2°52.67 15.337 0.068038 0.375579 -1.139864
2010-03-24 07:57:08 51°13.862 2°52.645 15.3366 0.068038 0.375579 -1.139864
2010-03-24 07:57:13 51°13.853 2°52.62 15.2743 0.068038 0.375586 -1.139864
2010-03-24 07:57:18 51°13.844 2°52.595 15.3809 0.068038 0.375586 -1.139864
2010-03-24 07:57:23 51°13.835 2°52.57 15.3253 0.068038 0.375593 -1.139864
2010-03-24 07:57:28 51°13.826 2°52.545 15.3517 0.068038 0.375593 -1.139864
2010-03-24 07:57:33 51°13.817 2°52.52 15.3664 0.068038 0.375593 -1.174688
2010-03-24 07:57:38 51°13.808 2°52.495 15.3246 0.068038 0.375599 -1.139864
2010-03-24 07:57:43 51°13.799 2°52.471 15.364 0.068038 0.375599 -1.139864
2010-03-24 07:57:48 51°13.79 2°52.446 15.3497 0.068038 0.375606 -1.139864
2010-03-24 07:57:53 51°13.781 2°52.421 15.3532 0.068038 0.375599 -1.139864
2010-03-24 07:57:58 51°13.772 2°52.396 15.3689 0.068038 0.375599 -1.139864
2010-03-24 07:58:03 51°13.763 2°52.371 15.346 0.068038 0.375613 -1.139864
2010-03-24 07:58:08 51°13.754 2°52.346 15.3534 0.068038 0.375613 -1.139864
2010-03-24 07:58:13 51°13.745 2°52.321 15.3729 0.068038 0.375613 -1.139864
2010-03-24 07:58:18 51°13.735 2°52.296 15.3002 0.068038 0.375613 -1.139864
2010-03-24 07:58:23 51°13.726 2°52.271 15.2748 0.068038 0.375613 -1.139864
2010-03-24 07:58:28 51°13.717 2°52.246 15.3579 0.068038 0.375613 -1.139864
2010-03-24 07:58:33 51°13.709 2°52.221 15.3123 0.068038 0.375626 -1.139864
2010-03-24 07:58:38 51°13.699 2°52.196 15.3389 0.068038 0.375626 -1.139864
2010-03-24 07:58:43 51°13.691 2°52.171 15.3317 0.068038 0.375633 -1.139864
2010-03-24 07:58:48 51°13.681 2°52.146 15.3027 0.068038 0.375633 -1.139864
2010-03-24 07:58:53 51°13.672 2°52.121 15.364 0.068038 0.37564 -1.139864
2010-03-24 07:58:58 51°13.663 2°52.096 15.3374 0.068038 0.37564 -1.139864
2010-03-24 07:59:03 51°13.654 2°52.07 15.3395 0.068038 0.37564 -1.139864
2010-03-24 07:59:08 51°13.645 2°52.045 15.2831 0.068038 0.375646 -1.139864
2010-03-24 07:59:13 51°13.636 2°52.02 15.3693 0.068038 0.375646 -1.139864
2010-03-24 07:59:18 51°13.627 2°51.995 15.3713 0.068038 0.375646 -1.139864
2010-03-24 07:59:23 51°13.618 2°51.97 15.3066 0.068038 0.37566 -1.174688
2010-03-24 07:59:28 51°13.609 2°51.945 15.3082 0.068038 0.37566 -1.174688
2010-03-24 07:59:33 51°13.6 2°51.919 15.3242 0.068038 0.375653 -1.139864
2010-03-24 07:59:38 51°13.591 2°51.894 15.377 0.068038 0.37566 -1.139864
2010-03-24 07:59:43 51°13.582 2°51.869 15.3538 0.068038 0.37566 -1.174688
2010-03-24 07:59:48 51°13.572 2°51.844 15.3468 0.068038 0.37566 -1.139864
2010-03-24 07:59:53 51°13.563 2°51.819 15.3613 0.068038 0.375667 -1.139864
2010-03-24 07:59:58 51°13.554 2°51.793 15.346 0.068038 0.375667 -1.139864
2010-03-24 08:00:03 51°13.545 2°51.768 15.3622 0.068038 0.375667 -1.139864
2010-03-24 08:00:08 51°13.536 2°51.743 15.3427 0.068038 0.375673 -1.174688
2010-03-24 08:00:13 51°13.527 2°51.717 15.3356 0.068038 0.37568 -1.139864
2010-03-24 08:00:18 51°13.518 2°51.692 15.3393 0.068038 0.37568 -1.139864
2010-03-24 08:00:23 51°13.509 2°51.667 15.4044 0.068038 0.375687 -1.139864
2010-03-24 08:00:28 51°13.5 2°51.641 15.3579 0.068038 0.375687 -1.139864
2010-03-24 08:00:33 51°13.491 2°51.616 15.391 0.068038 0.375687 -1.174688
2010-03-24 08:00:38 51°13.482 2°51.591 15.2305 0.068038 0.375694 -1.139864
2010-03-24 08:00:43 51°13.473 2°51.565 15.399 0.068038 0.375694 -1.174688
2010-03-24 08:00:48 51°13.464 2°51.54 15.2841 0.068038 0.375694 -1.139864
2010-03-24 08:00:53 51°13.455 2°51.515 15.3865 0.068038 0.3757 -1.174688
2010-03-24 08:00:58 51°13.446 2°51.489 15.3099 0.068038 0.3757 -1.174688
2010-03-24 08:01:03 51°13.437 2°51.464 15.3856 0.068038 0.375707 -1.139864
2010-03-24 08:01:08 51°13.428 2°51.438 15.354 0.068038 0.375714 -1.139864
2010-03-24 08:01:13 51°13.419 2°51.413 15.355 0.068038 0.375714 -1.174688
2010-03-24 08:01:18 51°13.41 2°51.388 15.3366 0.068038 0.375714 -1.139864
2010-03-24 08:01:23 51°13.401 2°51.362 15.3074 0.068038 0.375721 -1.139864
2010-03-24 08:01:28 51°13.392 2°51.337 15.3571 0.068038 0.375721 -1.139864
2010-03-24 08:01:33 51°13.383 2°51.311 15.3442 0.068038 0.375721 -1.174688
2010-03-24 08:01:38 51°13.374 2°51.286 15.3337 0.068038 0.375727 -1.139864
2010-03-24 08:01:43 51°13.365 2°51.26 15.3035 0.068038 0.375727 -1.139864
2010-03-24 08:01:48 51°13.356 2°51.235 15.3744 0.068038 0.375734 -1.139864
2010-03-24 08:01:53 51°13.347 2°51.21 15.3828 0.068038 0.375741 -1.174688
2010-03-24 08:01:58 51°13.338 2°51.184 15.3557 0.068038 0.375741 -1.174688
2010-03-24 08:02:03 51°13.329 2°51.159 15.3875 0.068038 0.375734 -1.174688
2010-03-24 08:02:08 51°13.32 2°51.133 15.2371 0.068038 0.375747 -1.174688
2010-03-24 08:02:13 51°13.311 2°51.108 15.3838 0.068038 0.375741 -1.174688
2010-03-24 08:02:18 51°13.302 2°51.082 15.253 0.068038 0.375747 -1.139864
2010-03-24 08:02:23 51°13.293 2°51.057 15.3786 0.068038 0.375754 -1.139864
2010-03-24 08:02:28 51°13.284 2°51.031 15.2925 0.068038 0.375754 -1.139864
2010-03-24 08:02:33 51°13.274 2°51.006 15.3506 0.068038 0.375754 -1.139864
2010-03-24 08:02:38 51°13.266 2°50.98 15.3544 0.068038 0.375761 -1.139864
2010-03-24 08:02:43 51°13.257 2°50.955 15.2505 0.068038 0.375761 -1.139864
2010-03-24 08:02:48 51°13.248 2°50.93 15.3838 0.068038 0.375768 -1.139864
2010-03-24 08:02:53 51°13.239 2°50.904 15.3852 0.068038 0.375768 -1.174688
2010-03-24 08:02:58 51°13.23 2°50.879 15.3498 0.068038 0.375768 -1.174688
2010-03-24 08:03:03 51°13.221 2°50.853 15.2912 0.068038 0.375774 -1.174688
2010-03-24 08:03:08 51°13.212 2°50.827 15.3129 0.068038 0.375774 -1.174688
2010-03-24 08:03:13 51°13.203 2°50.802 15.2998 0.068038 0.375774 -1.139864
2010-03-24 08:03:18 51°13.194 2°50.776 15.3638 0.068038 0.375781 -1.139864
2010-03-24 08:03:23 51°13.185 2°50.751 15.307 0.068038 0.375788 -1.139864
2010-03-24 08:03:28 51°13.176 2°50.725 15.3406 0.068038 0.375788 -1.139864
2010-03-24 08:03:33 51°13.167 2°50.7 15.3633 0.068038 0.375788 -1.139864
2010-03-24 08:03:38 51°13.158 2°50.674 15.3809 0.068038 0.375788 -1.139864
2010-03-24 08:03:43 51°13.149 2°50.648 15.3297 0.068038 0.375801 -1.139864
2010-03-24 08:03:48 51°13.14 2°50.623 15.3328 0.068038 0.375795 -1.139864
2010-03-24 08:03:53 51°13.131 2°50.597 15.2833 0.068038 0.375801 -1.174688
2010-03-24 08:03:58 51°13.122 2°50.572 15.3256 0.068038 0.375801 -1.174688
2010-03-24 08:04:03 51°13.113 2°50.546 15.2761 0.068038 0.375808 -1.139864
2010-03-24 08:04:08 51°13.104 2°50.52 15.3762 0.068038 0.375808 -1.174688
2010-03-24 08:04:13 51°13.095 2°50.495 15.2643 0.068038 0.375815 -1.139864
2010-03-24 08:04:18 51°13.086 2°50.469 15.3339 0.068038 0.375815 -1.139864
2010-03-24 08:04:23 51°13.078 2°50.444 15.3554 0.068038 0.375822 -1.174688
2010-03-24 08:04:28 51°13.069 2°50.418 15.3106 0.068038 0.375822 -1.174688
2010-03-24 08:04:33 51°13.06 2°50.393 15.3563 0.068038 0.375822 -1.139864
2010-03-24 08:04:38 51°13.051 2°50.367 15.3001 0.068038 0.375828 -1.174688
2010-03-24 08:04:43 51°13.042 2°50.341 15.3561 0.068038 0.375828 -1.139864
2010-03-24 08:04:48 51°13.033 2°50.316 15.2823 0.068038 0.375835 -1.174688
2010-03-24 08:04:53 51°13.025 2°50.29 15.3578 0.068038 0.375835 -1.174688
2010-03-24 08:04:58 51°13.016 2°50.264 15.3134 0.068038 0.375835 -1.174688
2010-03-24 08:05:03 51°13.007 2°50.239 15.3748 0.068038 0.375835 -1.139864
2010-03-24 08:05:08 51°12.998 2°50.213 15.2916 0.068038 0.375842 -1.139864
2010-03-24 08:05:13 51°12.989 2°50.187 15.3442 0.068038 0.375842 -1.174688
2010-03-24 08:05:18 51°12.981 2°50.161 15.3418 0.068038 0.375849 -1.139864
2010-03-24 08:05:23 51°12.972 2°50.136 15.3848 0.068038 0.375849 -1.139864
2010-03-24 08:05:28 51°12.963 2°50.11 15.3011 0.068038 0.375849 -1.139864
2010-03-24 08:05:33 51°12.954 2°50.084 15.3593 0.068038 0.375849 -1.139864
2010-03-24 08:05:38 51°12.946 2°50.058 15.3372 0.068038 0.375855 -1.139864
2010-03-24 08:05:43 51°12.937 2°50.032 15.306 0.068038 0.375855 -1.174688
2010-03-24 08:05:48 51°12.928 2°50.007 15.3369 0.068038 0.375862 -1.139864
2010-03-24 08:05:53 51°12.92 2°49.981 15.3476 0.068038 0.375862 -1.174688
2010-03-24 08:05:57 51°12.913 2°49.96 15.3602 0.068038 0.375862 -1.174688
2010-03-24 08:06:03 51°12.902 2°49.929 15.3081 0.068038 0.375869 -1.139864
2010-03-24 08:06:08 51°12.894 2°49.904 15.3771 0.068038 0.375869 -1.139864
2010-03-24 08:06:13 51°12.885 2°49.878 15.3075 0.068038 0.375875 -1.139864
2010-03-24 08:06:18 51°12.876 2°49.852 15.3752 0.068038 0.375875 -1.139864
2010-03-24 08:06:23 51°12.868 2°49.826 15.3774 0.068038 0.375875 -1.174688
2010-03-24 08:06:28 51°12.859 2°49.8 15.341 0.068038 0.375875 -1.174688
2010-03-24 08:06:33 51°12.85 2°49.775 15.3618 0.068038 0.375882 -1.174688
2010-03-24 08:06:38 51°12.842 2°49.749 15.3398 0.068038 0.375882 -1.139864
2010-03-24 08:06:43 51°12.833 2°49.723 15.3351 0.068038 0.375889 -1.139864
2010-03-24 08:06:48 51°12.824 2°49.697 15.3423 0.068038 0.375889 -1.139864
2010-03-24 08:06:53 51°12.816 2°49.671 15.3244 0.068038 0.375889 -1.174688
2010-03-24 08:06:58 51°12.807 2°49.645 15.3425 0.068038 0.375889 -1.174688
2010-03-24 08:07:03 51°12.798 2°49.619 15.3628 0.068038 0.375896 -1.174688
2010-03-24 08:07:08 51°12.79 2°49.593 15.2996 0.068038 0.375902 -1.139864
2010-03-24 08:07:13 51°12.781 2°49.567 15.3721 0.068038 0.375896 -1.139864
2010-03-24 08:07:18 51°12.773 2°49.541 15.3123 0.068038 0.375902 -1.174688
2010-03-24 08:07:23 51°12.764 2°49.515 15.3843 0.068038 0.375902 -1.139864
2010-03-24 08:07:28 51°12.756 2°49.489 15.3328 0.068038 0.375902 -1.139864
2010-03-24 08:07:33 51°12.747 2°49.463 15.3027 0.068038 0.375909 -1.139864
2010-03-24 08:07:38 51°12.738 2°49.437 15.3729 0.068038 0.375909 -1.139864
2010-03-24 08:07:43 51°12.73 2°49.411 15.3068 0.068038 0.375916 -1.174688
2010-03-24 08:07:48 51°12.721 2°49.386 15.3435 0.068038 0.375916 -1.139864
2010-03-24 08:07:53 51°12.713 2°49.359 15.3032 0.068038 0.375916 -1.139864
2010-03-24 08:07:58 51°12.704 2°49.333 15.3717 0.068038 0.375916 -1.139864
2010-03-24 08:08:03 51°12.696 2°49.307 15.3399 0.068038 0.375929 -1.139864
2010-03-24 08:08:08 51°12.687 2°49.281 15.3831 0.068038 0.375923 -1.139864
2010-03-24 08:08:13 51°12.679 2°49.255 15.3683 0.068038 0.375929 -1.174688
2010-03-24 08:08:18 51°12.67 2°49.229 15.3541 0.068038 0.375929 -1.139864
2010-03-24 08:08:23 51°12.662 2°49.203 15.3084 0.068038 0.375929 -1.174688
2010-03-24 08:08:28 51°12.653 2°49.177 15.3776 0.068038 0.375929 -1.174688
2010-03-24 08:08:33 51°12.645 2°49.151 15.303 0.068038 0.375936 -1.174688
2010-03-24 08:08:38 51°12.636 2°49.126 15.3111 0.068038 0.375936 -1.174688
2010-03-24 08:08:43 51°12.627 2°49.099 15.3641 0.068038 0.375943 -1.174688
2010-03-24 08:08:48 51°12.619 2°49.074 15.3526 0.068038 0.375936 -1.174688
2010-03-24 08:08:53 51°12.61 2°49.047 15.3363 0.068038 0.375943 -1.139864
2010-03-24 08:08:58 51°12.602 2°49.021 15.329 0.068038 0.375943 -1.139864
2010-03-24 08:09:03 51°12.593 2°48.995 15.3477 0.068038 0.37595 -1.174688
2010-03-24 08:09:08 51°12.585 2°48.969 15.3432 0.068038 0.37595 -1.174688
2010-03-24 08:09:13 51°12.576 2°48.943 15.4121 0.068038 0.37595 -1.139864
2010-03-24 08:09:18 51°12.568 2°48.917 15.3067 0.068038 0.375956 -1.139864
2010-03-24 08:09:23 51°12.559 2°48.891 15.3546 0.068038 0.375956 -1.139864
2010-03-24 08:09:28 51°12.551 2°48.864 15.3471 0.068038 0.375956 -1.139864
2010-03-24 08:09:33 51°12.543 2°48.838 15.3187 0.068038 0.375963 -1.139864
2010-03-24 08:09:38 51°12.534 2°48.812 15.3812 0.068038 0.375963 -1.139864
2010-03-24 08:09:43 51°12.526 2°48.786 15.2921 0.068038 0.375963 -1.139864
2010-03-24 08:09:48 51°12.517 2°48.76 15.3693 0.068038 0.375963 -1.174688
2010-03-24 08:09:53 51°12.509 2°48.733 15.3517 0.068038 0.37597 -1.139864
2010-03-24 08:09:58 51°12.5 2°48.707 15.3861 0.068038 0.37597 -1.139864
2010-03-24 08:10:03 51°12.492 2°48.681 15.3369 0.068038 0.37597 -1.139864
2010-03-24 08:10:08 51°12.483 2°48.655 15.3843 0.068038 0.37597 -1.139864
2010-03-24 08:10:13 51°12.475 2°48.628 15.2809 0.068038 0.375977 -1.174688
2010-03-24 08:10:18 51°12.466 2°48.602 15.372 0.068038 0.375977 -1.174688
2010-03-24 08:10:23 51°12.458 2°48.576 15.2952 0.068038 0.375977 -1.139864
2010-03-24 08:10:28 51°12.449 2°48.549 15.3651 0.068038 0.375977 -1.139864
2010-03-24 08:10:33 51°12.441 2°48.523 15.3042 0.068038 0.375983 -1.139864
2010-03-24 08:10:37 51°12.434 2°48.502 15.3782 0.068038 0.375983 -1.139864
2010-03-24 08:10:43 51°12.424 2°48.47 15.3232 0.068038 0.37599 -1.139864
2010-03-24 08:10:48 51°12.416 2°48.444 15.2999 0.068038 0.37599 -1.174688
2010-03-24 08:10:53 51°12.407 2°48.417 15.3958 0.068038 0.37599 -1.139864
2010-03-24 08:10:58 51°12.399 2°48.391 15.2741 0.068038 0.37599 -1.139864
2010-03-24 08:11:03 51°12.39 2°48.364 15.3763 0.068038 0.37599 -1.139864
2010-03-24 08:11:08 51°12.382 2°48.337 15.2583 0.068038 0.375997 -1.139864
2010-03-24 08:11:13 51°12.374 2°48.311 15.3976 0.068038 0.37599 -1.174688
2010-03-24 08:11:18 51°12.366 2°48.285 15.282 0.068038 0.376004 -1.139864
2010-03-24 08:11:23 51°12.357 2°48.258 15.3271 0.068038 0.376004 -1.139864
2010-03-24 08:11:28 51°12.348 2°48.232 15.3496 0.068038 0.376004 -1.139864
2010-03-24 08:11:33 51°12.34 2°48.205 15.3427 0.068038 0.376004 -1.139864
2010-03-24 08:11:38 51°12.332 2°48.179 15.3507 0.068038 0.376004 -1.139864
2010-03-24 08:11:43 51°12.324 2°48.152 15.3435 0.068038 0.37601 -1.139864
2010-03-24 08:11:48 51°12.315 2°48.125 15.3171 0.068038 0.376017 -1.139864
2010-03-24 08:11:53 51°12.307 2°48.099 15.3477 0.068038 0.37601 -1.174688
2010-03-24 08:11:58 51°12.298 2°48.072 15.3548 0.068038 0.37601 -1.174688
2010-03-24 08:12:03 51°12.29 2°48.045 15.3422 0.068038 0.37601 -1.174688
2010-03-24 08:12:08 51°12.282 2°48.019 15.3397 0.068038 0.376017 -1.139864
2010-03-24 08:12:13 51°12.273 2°47.992 15.3275 0.068038 0.376024 -1.174688
2010-03-24 08:12:18 51°12.265 2°47.966 15.3149 0.068038 0.376024 -1.174688
2010-03-24 08:12:23 51°12.257 2°47.939 15.3477 0.068038 0.376017 -1.174688
2010-03-24 08:12:28 51°12.249 2°47.913 15.3815 0.068038 0.376017 -1.174688
2010-03-24 08:12:33 51°12.24 2°47.886 15.3526 0.068038 0.376031 -1.174688
2010-03-24 08:12:38 51°12.232 2°47.859 15.3795 0.068038 0.376031 -1.174688
2010-03-24 08:12:43 51°12.223 2°47.833 15.3665 0.068038 0.376037 -1.174688
2010-03-24 08:12:48 51°12.215 2°47.806 15.3047 0.068038 0.376031 -1.139864
2010-03-24 08:12:53 51°12.207 2°47.78 15.3667 0.068038 0.376037 -1.174688
2010-03-24 08:12:58 51°12.198 2°47.753 15.3276 0.068038 0.376037 -1.174688
2010-03-24 08:13:03 51°12.19 2°47.726 15.3442 0.068038 0.376037 -1.139864
2010-03-24 08:13:08 51°12.182 2°47.699 15.2655 0.068038 0.376037 -1.139864
2010-03-24 08:13:13 51°12.173 2°47.673 15.396 0.068038 0.376037 -1.174688
2010-03-24 08:13:18 51°12.165 2°47.646 15.3769 0.068038 0.376044 -1.139864
2010-03-24 08:13:23 51°12.157 2°47.619 15.3255 0.068038 0.376044 -1.139864
2010-03-24 08:13:28 51°12.149 2°47.592 15.3196 0.068038 0.376044 -1.139864
2010-03-24 08:13:33 51°12.14 2°47.566 15.3247 0.068038 0.376044 -1.139864
2010-03-24 08:13:38 51°12.132 2°47.539 15.371 0.068038 0.376051 -1.174688
2010-03-24 08:13:43 51°12.124 2°47.512 15.3051 0.068038 0.376051 -1.139864
2010-03-24 08:13:48 51°12.116 2°47.486 15.3776 0.068038 0.376051 -1.174688
2010-03-24 08:13:53 51°12.107 2°47.459 15.3576 0.068038 0.376051 -1.139864
2010-03-24 08:13:58 51°12.099 2°47.432 15.3467 0.068038 0.376051 -1.139864
2010-03-24 08:14:03 51°12.09 2°47.405 15.3284 0.068038 0.376064 -1.139864
2010-03-24 08:14:08 51°12.082 2°47.378 15.382 0.068038 0.376058 -1.139864
2010-03-24 08:14:13 51°12.074 2°47.351 15.2982 0.068038 0.376064 -1.139864
2010-03-24 08:14:18 51°12.066 2°47.325 15.3909 0.068038 0.376064 -1.139864
2010-03-24 08:14:23 51°12.058 2°47.298 15.3598 0.068038 0.376071 -1.139864
2010-03-24 08:14:28 51°12.049 2°47.271 15.3589 0.068038 0.376071 -1.139864
2010-03-24 08:14:33 51°12.041 2°47.244 15.3574 0.068038 0.376064 -1.174688
2010-03-24 08:14:38 51°12.033 2°47.217 15.3623 0.068038 0.376071 -1.174688
2010-03-24 08:14:43 51°12.025 2°47.19 15.3236 0.068038 0.376071 -1.139864
2010-03-24 08:14:48 51°12.017 2°47.163 15.3909 0.068038 0.376078 -1.174688
2010-03-24 08:14:53 51°12.009 2°47.136 15.3151 0.068038 0.376071 -1.174688
2010-03-24 08:14:58 51°12 2°47.11 15.3911 0.068038 0.376071 -1.174688
2010-03-24 08:15:03 51°11.992 2°47.083 15.3262 0.068038 0.376078 -1.174688
2010-03-24 08:15:08 51°11.984 2°47.056 15.3737 0.068038 0.376078 -1.174688
2010-03-24 08:15:13 51°11.976 2°47.03 15.3521 0.068038 0.376085 -1.174688
2010-03-24 08:15:18 51°11.967 2°47.003 15.3538 0.068038 0.376085 -1.139864
2010-03-24 08:15:23 51°11.959 2°46.976 15.3102 0.068038 0.376085 -1.174688
2010-03-24 08:15:28 51°11.951 2°46.949 15.3829 0.068038 0.376085 -1.174688
2010-03-24 08:15:33 51°11.943 2°46.922 15.3315 0.068038 0.376085 -1.174688
2010-03-24 08:15:38 51°11.935 2°46.895 15.3792 0.068038 0.376091 -1.139864
2010-03-24 08:15:43 51°11.927 2°46.868 15.3853 0.068038 0.376091 -1.139864
2010-03-24 08:15:48 51°11.919 2°46.842 15.3603 0.068038 0.376098 -1.139864
2010-03-24 08:15:53 51°11.911 2°46.815 15.2729 0.068038 0.376091 -1.174688
2010-03-24 08:15:58 51°11.902 2°46.788 15.3439 0.068038 0.376091 -1.174688
2010-03-24 08:16:03 51°11.894 2°46.761 15.3302 0.068038 0.376098 -1.174688
2010-03-24 08:16:08 51°11.886 2°46.734 15.3348 0.068038 0.376098 -1.139864
2010-03-24 08:16:13 51°11.878 2°46.708 15.3967 0.068038 0.376098 -1.174688
2010-03-24 08:16:18 51°11.87 2°46.681 15.3427 0.068038 0.376105 -1.174688
2010-03-24 08:16:23 51°11.862 2°46.655 15.3142 0.068038 0.376105 -1.174688
2010-03-24 08:16:28 51°11.853 2°46.628 15.3678 0.068038 0.376105 -1.174688
2010-03-24 08:16:33 51°11.846 2°46.601 15.3666 0.068038 0.376105 -1.139864
2010-03-24 08:16:37 51°11.839 2°46.579 15.3494 0.068038 0.376112 -1.139864
2010-03-24 08:16:43 51°11.83 2°46.547 15.4065 0.068038 0.376112 -1.139864
2010-03-24 08:16:48 51°11.821 2°46.52 15.3222 0.068038 0.376112 -1.174688
2010-03-24 08:16:53 51°11.813 2°46.493 15.3539 0.068038 0.376118 -1.139864
2010-03-24 08:16:58 51°11.805 2°46.466 15.3707 0.068038 0.376118 -1.139864
2010-03-24 08:17:03 51°11.797 2°46.439 15.3267 0.068038 0.376118 -1.174688
2010-03-24 08:17:08 51°11.789 2°46.412 15.3467 0.068038 0.376118 -1.139864
2010-03-24 08:17:13 51°11.781 2°46.385 15.3337 0.068038 0.376118 -1.174688
2010-03-24 08:17:17 51°11.775 2°46.363 15.3922 0.068038 0.376125 -1.174688
2010-03-24 08:17:23 51°11.765 2°46.331 15.3613 0.068038 0.376125 -1.139864
2010-03-24 08:17:28 51°11.757 2°46.304 15.3612 0.068038 0.376125 -1.139864
2010-03-24 08:17:33 51°11.749 2°46.277 15.3278 0.068038 0.376125 -1.174688
2010-03-24 08:17:38 51°11.74 2°46.25 15.3936 0.068038 0.376125 -1.174688
2010-03-24 08:17:43 51°11.733 2°46.223 15.3796 0.068038 0.376132 -1.174688
2010-03-24 08:17:48 51°11.724 2°46.196 15.3277 0.068038 0.376132 -1.139864
2010-03-24 08:17:53 51°11.716 2°46.169 15.368 0.068038 0.376139 -1.174688
2010-03-24 08:17:58 51°11.708 2°46.142 15.3516 0.068038 0.376139 -1.174688
2010-03-24 08:18:03 51°11.7 2°46.115 15.3657 0.068038 0.376139 -1.174688
2010-03-24 08:18:08 51°11.692 2°46.087 15.3674 0.068038 0.376145 -1.139864
2010-03-24 08:18:13 51°11.683 2°46.06 15.389 0.068038 0.376139 -1.139864
2010-03-24 08:18:18 51°11.676 2°46.033 15.232 0.068038 0.376139 -1.139864
2010-03-24 08:18:23 51°11.667 2°46.006 15.4125 0.068038 0.376145 -1.139864
2010-03-24 08:18:28 51°11.66 2°45.979 15.3458 0.068038 0.376145 -1.139864
2010-03-24 08:18:33 51°11.651 2°45.952 15.3934 0.068038 0.376145 -1.139864
2010-03-24 08:18:38 51°11.644 2°45.924 15.3193 0.068038 0.376152 -1.139864
2010-03-24 08:18:43 51°11.636 2°45.897 15.3594 0.068038 0.376145 -1.174688
2010-03-24 08:18:48 51°11.628 2°45.87 15.312 0.067935 0.375565 -1.174688
2010-03-24 08:18:53 51°11.62 2°45.843 15.4 0.068038 0.376159 -1.174688
2010-03-24 08:18:57 51°11.614 2°45.821 15.4138 0.068038 0.376159 -1.174688
2010-03-24 08:19:03 51°11.604 2°45.789 15.3926 0.068038 0.376159 -1.139864
2010-03-24 08:19:08 51°11.596 2°45.761 15.384 0.068038 0.376159 -1.174688
2010-03-24 08:19:13 51°11.588 2°45.734 15.4 0.068038 0.376159 -1.174688
2010-03-24 08:19:18 51°11.58 2°45.707 15.3824 0.068038 0.376166 -1.139864
2010-03-24 08:19:23 51°11.572 2°45.68 15.4189 0.067935 0.375578 -1.174688
2010-03-24 08:19:28 51°11.564 2°45.653 15.3144 0.067935 0.375578 -1.174688
2010-03-24 08:19:33 51°11.556 2°45.626 15.3975 0.068038 0.376166 -1.174688
2010-03-24 08:19:38 51°11.548 2°45.598 15.3853 0.068038 0.376172 -1.139864
2010-03-24 08:19:43 51°11.54 2°45.571 15.385 0.068038 0.376172 -1.174688
2010-03-24 08:19:48 51°11.532 2°45.544 15.3723 0.068038 0.376172 -1.174688
2010-03-24 08:19:53 51°11.524 2°45.517 15.352 0.068038 0.376172 -1.139864
2010-03-24 08:19:58 51°11.517 2°45.49 15.3807 0.068038 0.376172 -1.139864
2010-03-24 08:20:03 51°11.509 2°45.463 15.3668 0.068038 0.376179 -1.174688
2010-03-24 08:20:08 51°11.501 2°45.435 15.4319 0.067935 0.375592 -1.174688
2010-03-24 08:20:13 51°11.493 2°45.408 15.3052 0.067935 0.375592 -1.174688
2010-03-24 08:20:18 51°11.485 2°45.381 15.4026 0.068038 0.376186 -1.174688
2010-03-24 08:20:23 51°11.478 2°45.354 15.382 0.068038 0.376186 -1.174688
2010-03-24 08:20:28 51°11.47 2°45.326 15.4205 0.068038 0.376186 -1.174688
2010-03-24 08:20:33 51°11.462 2°45.299 15.3029 0.068038 0.376193 -1.174688
2010-03-24 08:20:38 51°11.454 2°45.272 15.4055 0.068038 0.376186 -1.174688
2010-03-24 08:20:43 51°11.447 2°45.244 15.3271 0.068038 0.376199 -1.174688
2010-03-24 08:20:48 51°11.439 2°45.217 15.4044 0.068038 0.376193 -1.174688
2010-03-24 08:20:53 51°11.431 2°45.19 15.3342 0.067935 0.375612 -1.139864
2010-03-24 08:20:58 51°11.423 2°45.163 15.3608 0.067935 0.375612 -1.139864
2010-03-24 08:21:03 51°11.415 2°45.135 15.3756 0.067935 0.375612 -1.174688
2010-03-24 08:21:08 51°11.407 2°45.108 15.3593 0.068038 0.376199 -1.174688
2010-03-24 08:21:13 51°11.4 2°45.081 15.3415 0.067935 0.375612 -1.174688
2010-03-24 08:21:18 51°11.392 2°45.053 15.3892 0.067935 0.375619 -1.174688
2010-03-24 08:21:23 51°11.384 2°45.026 15.3597 0.067935 0.375619 -1.139864
2010-03-24 08:21:28 51°11.376 2°44.998 15.4073 0.067935 0.375619 -1.139864
2010-03-24 08:21:33 51°11.369 2°44.971 15.3703 0.067935 0.375625 -1.174688
2010-03-24 08:21:38 51°11.361 2°44.944 15.414 0.067935 0.375619 -1.139864
2010-03-24 08:21:43 51°11.354 2°44.916 15.3774 0.067935 0.375625 -1.174688
2010-03-24 08:21:48 51°11.345 2°44.889 15.3394 0.067935 0.375625 -1.174688
2010-03-24 08:21:53 51°11.338 2°44.861 15.3705 0.067935 0.375632 -1.174688
2010-03-24 08:21:58 51°11.33 2°44.834 15.3812 0.067935 0.375632 -1.174688
2010-03-24 08:22:03 51°11.322 2°44.807 15.3689 0.067935 0.375632 -1.174688
2010-03-24 08:22:08 51°11.314 2°44.779 15.4529 0.067935 0.375632 -1.174688
2010-03-24 08:22:13 51°11.306 2°44.752 15.3847 0.067935 0.375632 -1.139864
2010-03-24 08:22:18 51°11.299 2°44.725 15.4225 0.067935 0.375632 -1.174688
2010-03-24 08:22:23 51°11.291 2°44.697 15.3637 0.067935 0.375639 -1.139864
2010-03-24 08:22:28 51°11.283 2°44.67 15.4071 0.067935 0.375639 -1.139864
2010-03-24 08:22:33 51°11.276 2°44.643 15.3713 0.067935 0.375639 -1.174688
2010-03-24 08:22:38 51°11.268 2°44.615 15.3964 0.067935 0.375645 -1.174688
2010-03-24 08:22:43 51°11.261 2°44.588 15.4099 0.067935 0.375645 -1.174688
2010-03-24 08:22:48 51°11.253 2°44.561 15.4251 0.067935 0.375652 -1.139864
2010-03-24 08:22:53 51°11.245 2°44.533 15.3193 0.067935 0.375645 -1.139864
2010-03-24 08:22:58 51°11.237 2°44.506 15.4198 0.067935 0.375645 -1.139864
2010-03-24 08:23:03 51°11.23 2°44.479 15.3752 0.067935 0.375645 -1.139864
2010-03-24 08:23:08 51°11.222 2°44.451 15.3884 0.067935 0.375652 -1.174688
2010-03-24 08:23:13 51°11.214 2°44.424 15.4225 0.067935 0.375652 -1.174688
2010-03-24 08:23:18 51°11.207 2°44.396 15.3446 0.067935 0.375652 -1.174688
2010-03-24 08:23:23 51°11.199 2°44.369 15.4193 0.067935 0.375659 -1.174688
2010-03-24 08:23:28 51°11.192 2°44.341 15.3832 0.067935 0.375659 -1.174688
2010-03-24 08:23:33 51°11.184 2°44.314 15.4102 0.067935 0.375659 -1.174688
2010-03-24 08:23:38 51°11.177 2°44.286 15.3383 0.067935 0.375666 -1.174688
2010-03-24 08:23:43 51°11.169 2°44.259 15.3439 0.067935 0.375659 -1.174688
2010-03-24 08:23:48 51°11.162 2°44.231 15.4363 0.067935 0.375666 -1.174688
2010-03-24 08:23:53 51°11.154 2°44.204 15.3995 0.067935 0.375666 -1.174688
2010-03-24 08:23:58 51°11.146 2°44.176 15.3924 0.067935 0.375666 -1.174688
2010-03-24 08:24:03 51°11.139 2°44.148 15.3961 0.067935 0.375666 -1.174688
2010-03-24 08:24:08 51°11.131 2°44.121 15.4293 0.067935 0.375666 -1.139864
2010-03-24 08:24:13 51°11.124 2°44.093 15.3568 0.067935 0.375672 -1.174688
2010-03-24 08:24:18 51°11.116 2°44.066 15.426 0.067935 0.375672 -1.174688
2010-03-24 08:24:23 51°11.109 2°44.038 15.3509 0.067935 0.375672 -1.174688
2010-03-24 08:24:28 51°11.101 2°44.01 15.3778 0.067935 0.375672 -1.174688
2010-03-24 08:24:33 51°11.094 2°43.983 15.39 0.067935 0.375679 -1.139864
2010-03-24 08:24:38 51°11.086 2°43.955 15.4401 0.067935 0.375679 -1.139864
2010-03-24 08:24:43 51°11.078 2°43.928 15.3302 0.067935 0.375679 -1.174688
2010-03-24 08:24:48 51°11.07 2°43.9 15.374 0.067935 0.375686 -1.174688
2010-03-24 08:24:53 51°11.063 2°43.873 15.4179 0.067935 0.375679 -1.139864
2010-03-24 08:24:58 51°11.055 2°43.846 15.3616 0.067935 0.375679 -1.139864
2010-03-24 08:25:03 51°11.048 2°43.818 15.403 0.067935 0.375686 -1.174688
2010-03-24 08:25:08 51°11.04 2°43.791 15.3819 0.067935 0.375686 -1.174688
2010-03-24 08:25:13 51°11.033 2°43.763 15.4118 0.067935 0.375693 -1.174688
2010-03-24 08:25:18 51°11.025 2°43.735 15.4076 0.067935 0.375686 -1.174688
2010-03-24 08:25:23 51°11.017 2°43.708 15.4453 0.067935 0.375699 -1.174688
2010-03-24 08:25:28 51°11.01 2°43.68 15.3838 0.067935 0.375699 -1.174688
2010-03-24 08:25:33 51°11.002 2°43.653 15.4366 0.067935 0.375693 -1.174688
2010-03-24 08:25:38 51°10.994 2°43.626 15.3274 0.067935 0.375699 -1.174688
2010-03-24 08:25:43 51°10.987 2°43.598 15.2544 0.067935 0.375693 -1.174688
2010-03-24 08:25:48 51°10.98 2°43.571 15.3967 0.067935 0.375699 -1.174688
2010-03-24 08:25:53 51°10.973 2°43.543 15.2673 0.067935 0.375699 -1.174688
2010-03-24 08:25:57 51°10.967 2°43.52 15.389 0.067935 0.375699 -1.174688
2010-03-24 08:26:03 51°10.96 2°43.486 15.3494 0.067935 0.375706 -1.174688
2010-03-24 08:26:08 51°10.953 2°43.458 15.4159 0.067935 0.375706 -1.174688
2010-03-24 08:26:13 51°10.948 2°43.43 15.3587 0.067935 0.375713 -1.174688
2010-03-24 08:26:18 51°10.941 2°43.401 15.3345 0.067935 0.375706 -1.174688
2010-03-24 08:26:23 51°10.936 2°43.373 15.4124 0.067935 0.375713 -1.174688
2010-03-24 08:26:28 51°10.93 2°43.344 15.3762 0.067935 0.375713 -1.174688
2010-03-24 08:26:33 51°10.924 2°43.316 15.3925 0.067935 0.375713 -1.174688
2010-03-24 08:26:38 51°10.918 2°43.287 15.3712 0.067935 0.37572 -1.174688
2010-03-24 08:26:43 51°10.912 2°43.259 15.4424 0.067935 0.375713 -1.174688
2010-03-24 08:26:48 51°10.906 2°43.23 15.3785 0.067935 0.375713 -1.139864
2010-03-24 08:26:53 51°10.9 2°43.202 15.4075 0.067935 0.37572 -1.174688
2010-03-24 08:26:58 51°10.895 2°43.173 15.3781 0.067935 0.37572 -1.174688
2010-03-24 08:27:03 51°10.889 2°43.145 15.4247 0.067935 0.37572 -1.174688
2010-03-24 08:27:08 51°10.883 2°43.116 15.3991 0.067935 0.375726 -1.174688
2010-03-24 08:27:13 51°10.877 2°43.087 15.4104 0.067935 0.375726 -1.174688
2010-03-24 08:27:18 51°10.872 2°43.059 15.4169 0.067935 0.375733 -1.139864
2010-03-24 08:27:23 51°10.865 2°43.031 15.3328 0.067935 0.375733 -1.174688
2010-03-24 08:27:28 51°10.86 2°43.002 15.3564 0.067935 0.375733 -1.174688
2010-03-24 08:27:33 51°10.853 2°42.973 15.3906 0.067935 0.375733 -1.174688
2010-03-24 08:27:38 51°10.848 2°42.945 15.3732 0.067935 0.375733 -1.174688
2010-03-24 08:27:43 51°10.841 2°42.917 15.3966 0.067935 0.375733 -1.174688
2010-03-24 08:27:48 51°10.836 2°42.888 15.412 0.067935 0.375733 -1.174688
2010-03-24 08:27:53 51°10.829 2°42.86 15.3852 0.067935 0.37574 -1.174688
2010-03-24 08:27:57 51°10.825 2°42.837 15.4138 0.067935 0.37574 -1.174688
2010-03-24 08:28:03 51°10.817 2°42.802 15.4119 0.067935 0.37574 -1.174688
2010-03-24 08:28:08 51°10.811 2°42.774 15.3674 0.067935 0.37574 -1.139864
2010-03-24 08:28:13 51°10.805 2°42.745 15.3986 0.067935 0.37574 -1.139864
2010-03-24 08:28:18 51°10.799 2°42.717 15.4002 0.067935 0.375747 -1.174688
2010-03-24 08:28:23 51°10.794 2°42.688 15.4152 0.067935 0.375747 -1.174688
2010-03-24 08:28:28 51°10.788 2°42.66 15.4147 0.067935 0.375747 -1.174688
2010-03-24 08:28:33 51°10.782 2°42.631 15.4167 0.067935 0.375753 -1.174688
2010-03-24 08:28:38 51°10.776 2°42.602 15.4588 0.067935 0.375747 -1.174688
2010-03-24 08:28:43 51°10.77 2°42.573 15.3877 0.067935 0.375753 -1.174688
2010-03-24 08:28:48 51°10.764 2°42.545 15.4354 0.067935 0.37576 -1.174688
2010-03-24 08:28:53 51°10.758 2°42.516 15.3235 0.067935 0.375753 -1.139864
2010-03-24 08:28:58 51°10.752 2°42.488 15.4015 0.067935 0.375753 -1.139864
2010-03-24 08:29:03 51°10.746 2°42.459 15.3907 0.067935 0.37576 -1.174688
2010-03-24 08:29:08 51°10.74 2°42.43 15.4176 0.067935 0.37576 -1.174688
2010-03-24 08:29:13 51°10.734 2°42.402 15.4077 0.067935 0.375767 -1.174688
2010-03-24 08:29:18 51°10.728 2°42.373 15.3842 0.067935 0.37576 -1.174688
2010-03-24 08:29:23 51°10.722 2°42.344 15.4391 0.067935 0.375767 -1.139864
2010-03-24 08:29:28 51°10.716 2°42.315 15.4273 0.067935 0.375767 -1.139864
2010-03-24 08:29:33 51°10.71 2°42.287 15.3525 0.067935 0.375767 -1.174688
2010-03-24 08:29:38 51°10.704 2°42.258 15.4061 0.067935 0.375767 -1.174688
2010-03-24 08:29:43 51°10.699 2°42.229 15.4294 0.067935 0.375774 -1.174688
2010-03-24 08:29:48 51°10.693 2°42.201 15.3705 0.067935 0.375774 -1.174688
2010-03-24 08:29:53 51°10.687 2°42.172 15.3871 0.067935 0.375774 -1.174688
2010-03-24 08:29:58 51°10.681 2°42.143 15.4549 0.067935 0.375774 -1.174688
2010-03-24 08:30:03 51°10.675 2°42.115 15.3564 0.067935 0.37578 -1.174688
2010-03-24 08:30:08 51°10.669 2°42.086 15.3956 0.067935 0.37578 -1.174688
2010-03-24 08:30:13 51°10.663 2°42.057 15.4051 0.067935 0.37578 -1.174688
2010-03-24 08:30:17 51°10.658 2°42.035 15.387 0.067935 0.37578 -1.174688
2010-03-24 08:30:23 51°10.651 2°42 15.4015 0.067935 0.37578 -1.174688
2010-03-24 08:30:28 51°10.646 2°41.972 15.3894 0.067935 0.37578 -1.174688
2010-03-24 08:30:33 51°10.64 2°41.943 15.4482 0.067935 0.375787 -1.174688
2010-03-24 08:30:38 51°10.634 2°41.914 15.3964 0.067935 0.375787 -1.139864
2010-03-24 08:30:43 51°10.628 2°41.886 15.4572 0.067935 0.375787 -1.174688
2010-03-24 08:30:48 51°10.623 2°41.857 15.4353 0.067935 0.375794 -1.174688
2010-03-24 08:30:53 51°10.617 2°41.829 15.4309 0.067935 0.375794 -1.174688
2010-03-24 08:30:58 51°10.611 2°41.8 15.3698 0.067935 0.375794 -1.174688
2010-03-24 08:31:03 51°10.605 2°41.772 15.4225 0.067935 0.375794 -1.174688
2010-03-24 08:31:08 51°10.599 2°41.743 15.374 0.067935 0.375801 -1.174688
2010-03-24 08:31:13 51°10.593 2°41.715 15.4315 0.067935 0.375794 -1.174688
2010-03-24 08:31:18 51°10.588 2°41.687 15.4199 0.067935 0.375801 -1.174688
2010-03-24 08:31:23 51°10.582 2°41.658 15.4489 0.067935 0.375801 -1.174688
2010-03-24 08:31:28 51°10.576 2°41.63 15.4563 0.067935 0.375801 -1.174688
2010-03-24 08:31:33 51°10.57 2°41.601 15.3446 0.067935 0.375807 -1.174688
2010-03-24 08:31:38 51°10.564 2°41.573 15.4441 0.067935 0.375801 -1.174688
2010-03-24 08:31:43 51°10.559 2°41.544 15.4111 0.067935 0.375814 -1.174688
2010-03-24 08:31:48 51°10.553 2°41.516 15.468 0.067935 0.375814 -1.174688
2010-03-24 08:31:53 51°10.547 2°41.487 15.4255 0.067935 0.375814 -1.174688
2010-03-24 08:31:58 51°10.542 2°41.459 15.4093 0.067935 0.375814 -1.174688
2010-03-24 08:32:03 51°10.536 2°41.43 15.3984 0.067935 0.375814 -1.174688
2010-03-24 08:32:08 51°10.53 2°41.402 15.4258 0.067935 0.375814 -1.174688
2010-03-24 08:32:13 51°10.524 2°41.374 15.442 0.067935 0.375821 -1.174688
2010-03-24 08:32:18 51°10.518 2°41.346 15.4089 0.067935 0.375821 -1.174688
2010-03-24 08:32:23 51°10.512 2°41.317 15.388 0.067935 0.375821 -1.174688
2010-03-24 08:32:28 51°10.507 2°41.289 15.4327 0.067935 0.375821 -1.174688
2010-03-24 08:32:33 51°10.501 2°41.26 15.4369 0.067935 0.375821 -1.174688
2010-03-24 08:32:37 51°10.497 2°41.237 15.4545 0.067935 0.375821 -1.139864
2010-03-24 08:32:43 51°10.489 2°41.203 15.4199 0.067935 0.375828 -1.174688
2010-03-24 08:32:48 51°10.484 2°41.175 15.3853 0.067935 0.375828 -1.174688
2010-03-24 08:32:53 51°10.478 2°41.147 15.3852 0.067935 0.375828 -1.139864
2010-03-24 08:32:58 51°10.472 2°41.118 15.4432 0.067935 0.375828 -1.139864
2010-03-24 08:33:03 51°10.467 2°41.09 15.4018 0.067935 0.375828 -1.139864
2010-03-24 08:33:08 51°10.461 2°41.061 15.4364 0.067935 0.375834 -1.174688
2010-03-24 08:33:13 51°10.455 2°41.033 15.3754 0.067935 0.375834 -1.174688
2010-03-24 08:33:18 51°10.449 2°41.005 15.4331 0.067935 0.375834 -1.174688
2010-03-24 08:33:23 51°10.444 2°40.976 15.4504 0.067935 0.375841 -1.174688
2010-03-24 08:33:28 51°10.438 2°40.948 15.4732 0.067935 0.375841 -1.174688
2010-03-24 08:33:33 51°10.432 2°40.919 15.4235 0.067935 0.375841 -1.174688
2010-03-24 08:33:38 51°10.426 2°40.891 15.4186 0.067935 0.375841 -1.139864
2010-03-24 08:33:43 51°10.421 2°40.863 15.4536 0.067935 0.375841 -1.174688
2010-03-24 08:33:48 51°10.414 2°40.835 15.3905 0.067935 0.375841 -1.174688
2010-03-24 08:33:53 51°10.409 2°40.806 15.4821 0.067935 0.375848 -1.174688
2010-03-24 08:33:58 51°10.403 2°40.778 15.3942 0.067935 0.375848 -1.174688
2010-03-24 08:34:03 51°10.397 2°40.75 15.4536 0.067935 0.375841 -1.139864
2010-03-24 08:34:08 51°10.392 2°40.721 15.4611 0.067935 0.375848 -1.174688
2010-03-24 08:34:13 51°10.386 2°40.692 15.454 0.067935 0.375855 -1.139864
2010-03-24 08:34:18 51°10.38 2°40.664 15.425 0.067935 0.375848 -1.174688
2010-03-24 08:34:23 51°10.374 2°40.636 15.4789 0.067935 0.375855 -1.174688
2010-03-24 08:34:28 51°10.369 2°40.607 15.4417 0.067935 0.375855 -1.174688
2010-03-24 08:34:33 51°10.363 2°40.579 15.4294 0.067935 0.375855 -1.174688
2010-03-24 08:34:38 51°10.357 2°40.55 15.4823 0.067935 0.375855 -1.174688
2010-03-24 08:34:43 51°10.351 2°40.522 15.4036 0.067935 0.375861 -1.139864
2010-03-24 08:34:48 51°10.345 2°40.493 15.4278 0.067935 0.375861 -1.174688
2010-03-24 08:34:53 51°10.34 2°40.465 15.4449 0.067935 0.375861 -1.174688
2010-03-24 08:34:57 51°10.335 2°40.442 15.4451 0.067935 0.375861 -1.174688
2010-03-24 08:35:03 51°10.328 2°40.408 15.4789 0.067935 0.375861 -1.174688
2010-03-24 08:35:08 51°10.323 2°40.38 15.4401 0.067935 0.375868 -1.174688
2010-03-24 08:35:13 51°10.317 2°40.351 15.4516 0.067935 0.375868 -1.174688
2010-03-24 08:35:18 51°10.311 2°40.323 15.4568 0.067935 0.375868 -1.174688
2010-03-24 08:35:23 51°10.305 2°40.294 15.392 0.067935 0.375868 -1.174688
2010-03-24 08:35:28 51°10.299 2°40.266 15.464 0.067935 0.375868 -1.174688
2010-03-24 08:35:33 51°10.294 2°40.237 15.4405 0.067935 0.375875 -1.174688
2010-03-24 08:35:38 51°10.288 2°40.209 15.4984 0.067935 0.375868 -1.174688
2010-03-24 08:35:43 51°10.283 2°40.18 15.4177 0.067935 0.375875 -1.174688
2010-03-24 08:35:48 51°10.277 2°40.151 15.448 0.067935 0.375875 -1.174688
2010-03-24 08:35:53 51°10.272 2°40.122 15.3901 0.067935 0.375882 -1.174688
2010-03-24 08:35:58 51°10.266 2°40.094 15.4881 0.067935 0.375882 -1.174688
2010-03-24 08:36:03 51°10.26 2°40.065 15.4717 0.067935 0.375882 -1.174688
2010-03-24 08:36:08 51°10.254 2°40.037 15.4683 0.067935 0.375882 -1.174688
2010-03-24 08:36:13 51°10.249 2°40.008 15.423 0.067935 0.375888 -1.174688
2010-03-24 08:36:18 51°10.243 2°39.98 15.4661 0.067935 0.375888 -1.174688
2010-03-24 08:36:23 51°10.237 2°39.951 15.4127 0.067935 0.375888 -1.174688
2010-03-24 08:36:28 51°10.232 2°39.922 15.5176 0.067935 0.375888 -1.174688
2010-03-24 08:36:33 51°10.226 2°39.894 15.438 0.067935 0.375888 -1.174688
2010-03-24 08:36:38 51°10.221 2°39.865 15.5019 0.067935 0.375888 -1.174688
2010-03-24 08:36:43 51°10.215 2°39.836 15.5058 0.067935 0.375895 -1.174688
2010-03-24 08:36:48 51°10.21 2°39.807 15.4842 0.067935 0.375902 -1.174688
2010-03-24 08:36:53 51°10.203 2°39.779 15.5077 0.067935 0.375902 -1.174688
2010-03-24 08:36:58 51°10.197 2°39.751 15.4399 0.067935 0.375902 -1.174688
2010-03-24 08:37:03 51°10.191 2°39.723 15.4815 0.067935 0.375902 -1.174688
2010-03-24 08:37:08 51°10.184 2°39.695 15.4758 0.067935 0.375909 -1.174688
2010-03-24 08:37:13 51°10.177 2°39.667 15.4517 0.067935 0.375902 -1.174688
2010-03-24 08:37:18 51°10.171 2°39.639 15.3973 0.067935 0.375909 -1.174688
2010-03-24 08:37:23 51°10.164 2°39.611 15.4072 0.067935 0.375909 -1.174688
2010-03-24 08:37:28 51°10.156 2°39.584 15.4535 0.067935 0.375909 -1.174688
2010-03-24 08:37:33 51°10.149 2°39.556 15.4407 0.067935 0.375909 -1.174688
2010-03-24 08:37:38 51°10.142 2°39.529 15.409 0.067935 0.375909 -1.174688
2010-03-24 08:37:43 51°10.134 2°39.501 15.4073 0.067935 0.375909 -1.174688
2010-03-24 08:37:48 51°10.127 2°39.473 15.3995 0.067935 0.375916 -1.174688
2010-03-24 08:37:53 51°10.12 2°39.446 15.4248 0.067935 0.375909 -1.174688
2010-03-24 08:37:57 51°10.114 2°39.423 15.4809 0.067935 0.375909 -1.174688
2010-03-24 08:38:03 51°10.106 2°39.39 15.4134 0.067935 0.375916 -1.174688
2010-03-24 08:38:08 51°10.098 2°39.362 15.4752 0.067935 0.375916 -1.174688
2010-03-24 08:38:13 51°10.091 2°39.335 15.4795 0.067935 0.375922 -1.174688
2010-03-24 08:38:18 51°10.084 2°39.307 15.4364 0.067935 0.375922 -1.174688
2010-03-24 08:38:23 51°10.077 2°39.279 15.4851 0.067935 0.375922 -1.174688
2010-03-24 08:38:28 51°10.07 2°39.251 15.4037 0.067935 0.375922 -1.174688
2010-03-24 08:38:33 51°10.062 2°39.223 15.4311 0.067935 0.375922 -1.174688
2010-03-24 08:38:38 51°10.056 2°39.195 15.4259 0.067935 0.375922 -1.174688
2010-03-24 08:38:43 51°10.048 2°39.167 15.479 0.067935 0.375929 -1.174688
2010-03-24 08:38:48 51°10.041 2°39.139 15.5069 0.067935 0.375929 -1.174688
2010-03-24 08:38:53 51°10.034 2°39.111 15.4934 0.067935 0.375936 -1.174688
2010-03-24 08:38:58 51°10.027 2°39.083 15.4739 0.067935 0.375936 -1.174688
2010-03-24 08:39:03 51°10.02 2°39.055 15.4717 0.067935 0.375929 -1.174688
2010-03-24 08:39:08 51°10.013 2°39.027 15.4168 0.067935 0.375936 -1.174688
2010-03-24 08:39:13 51°10.006 2°38.999 15.4629 0.067935 0.375936 -1.174688
2010-03-24 08:39:18 51°9.999 2°38.971 15.4791 0.067935 0.375936 -1.174688
2010-03-24 08:39:23 51°9.991 2°38.943 15.4676 0.067935 0.375936 -1.174688
2010-03-24 08:39:28 51°9.984 2°38.916 15.4545 0.067935 0.375936 -1.174688
2010-03-24 08:39:33 51°9.977 2°38.888 15.4899 0.067935 0.375943 -1.174688
2010-03-24 08:39:38 51°9.97 2°38.859 15.4953 0.067935 0.375943 -1.174688
2010-03-24 08:39:43 51°9.963 2°38.832 15.3694 0.067935 0.375943 -1.174688
2010-03-24 08:39:48 51°9.956 2°38.803 15.4937 0.067935 0.375949 -1.139864
2010-03-24 08:39:53 51°9.948 2°38.776 15.4549 0.067935 0.375949 -1.174688
2010-03-24 08:39:58 51°9.942 2°38.747 15.4403 0.067935 0.375949 -1.174688
2010-03-24 08:40:03 51°9.934 2°38.72 15.4509 0.067935 0.375949 -1.174688
2010-03-24 08:40:08 51°9.927 2°38.691 15.5269 0.067935 0.375949 -1.174688
2010-03-24 08:40:13 51°9.92 2°38.663 15.4244 0.067935 0.375956 -1.174688
2010-03-24 08:40:18 51°9.913 2°38.636 15.4685 0.067935 0.375956 -1.174688
2010-03-24 08:40:23 51°9.906 2°38.607 15.4973 0.067935 0.375963 -1.174688
2010-03-24 08:40:28 51°9.899 2°38.579 15.5098 0.067935 0.375963 -1.174688
2010-03-24 08:40:33 51°9.891 2°38.551 15.4795 0.067935 0.375963 -1.174688
2010-03-24 08:40:38 51°9.884 2°38.523 15.5071 0.067935 0.375963 -1.174688
2010-03-24 08:40:43 51°9.877 2°38.495 15.4475 0.067935 0.375963 -1.174688
2010-03-24 08:40:48 51°9.87 2°38.467 15.513 0.067935 0.375963 -1.174688
2010-03-24 08:40:53 51°9.863 2°38.439 15.4685 0.067935 0.375963 -1.174688
2010-03-24 08:40:58 51°9.856 2°38.411 15.4862 0.067935 0.375963 -1.174688
2010-03-24 08:41:03 51°9.849 2°38.382 15.5168 0.067935 0.375963 -1.174688
2010-03-24 08:41:08 51°9.841 2°38.354 15.4859 0.067935 0.37597 -1.174688
2010-03-24 08:41:13 51°9.834 2°38.326 15.4617 0.067935 0.37597 -1.174688
2010-03-24 08:41:17 51°9.828 2°38.304 15.4866 0.067935 0.37597 -1.139864
2010-03-24 08:41:23 51°9.82 2°38.27 15.4207 0.067935 0.37597 -1.174688
2010-03-24 08:41:28 51°9.813 2°38.242 15.4738 0.067935 0.37597 -1.174688
2010-03-24 08:41:33 51°9.805 2°38.214 15.4736 0.067935 0.375976 -1.174688
2010-03-24 08:41:38 51°9.798 2°38.186 15.5197 0.067935 0.375976 -1.174688
2010-03-24 08:41:43 51°9.791 2°38.157 15.4296 0.067935 0.375983 -1.174688
2010-03-24 08:41:48 51°9.784 2°38.129 15.4825 0.067935 0.375983 -1.174688
2010-03-24 08:41:53 51°9.777 2°38.101 15.4586 0.067935 0.375983 -1.174688
2010-03-24 08:41:57 51°9.771 2°38.078 15.4998 0.067935 0.375983 -1.174688
2010-03-24 08:42:03 51°9.763 2°38.045 15.4131 0.067935 0.375983 -1.174688
2010-03-24 08:42:08 51°9.755 2°38.016 15.5176 0.067935 0.375983 -1.174688
2010-03-24 08:42:13 51°9.748 2°37.988 15.3763 0.067935 0.37599 -1.174688
2010-03-24 08:42:18 51°9.741 2°37.96 15.482 0.067935 0.37599 -1.174688
2010-03-24 08:42:23 51°9.734 2°37.932 15.4414 0.067935 0.37599 -1.174688
2010-03-24 08:42:28 51°9.726 2°37.905 15.5221 0.067935 0.37599 -1.174688
2010-03-24 08:42:33 51°9.719 2°37.876 15.5185 0.067935 0.37599 -1.174688
2010-03-24 08:42:38 51°9.712 2°37.848 15.5139 0.067935 0.37599 -1.174688
2010-03-24 08:42:43 51°9.705 2°37.82 15.4379 0.067935 0.375997 -1.174688
2010-03-24 08:42:48 51°9.698 2°37.791 15.5117 0.067935 0.375997 -1.174688
2010-03-24 08:42:53 51°9.691 2°37.763 15.4566 0.067935 0.376003 -1.174688
2010-03-24 08:42:58 51°9.684 2°37.735 15.4332 0.067935 0.376003 -1.174688
2010-03-24 08:43:03 51°9.677 2°37.706 15.52 0.067935 0.375997 -1.174688
2010-03-24 08:43:08 51°9.67 2°37.677 15.5185 0.067935 0.376003 -1.174688
2010-03-24 08:43:13 51°9.663 2°37.649 15.4362 0.067935 0.376003 -1.139864
2010-03-24 08:43:17 51°9.657 2°37.626 15.5096 0.067935 0.376003 -1.174688
2010-03-24 08:43:23 51°9.649 2°37.592 15.5336 0.067935 0.376003 -1.174688
2010-03-24 08:43:28 51°9.642 2°37.564 15.4753 0.067935 0.376003 -1.174688
2010-03-24 08:43:33 51°9.635 2°37.535 15.4522 0.067935 0.37601 -1.174688
2010-03-24 08:43:38 51°9.628 2°37.507 15.5252 0.067935 0.37601 -1.174688
2010-03-24 08:43:43 51°9.621 2°37.479 15.5128 0.067935 0.376017 -1.174688
2010-03-24 08:43:48 51°9.613 2°37.451 15.4177 0.067935 0.37601 -1.174688
2010-03-24 08:43:53 51°9.606 2°37.422 15.5402 0.067935 0.376017 -1.174688
2010-03-24 08:43:58 51°9.599 2°37.394 15.4789 0.067935 0.376017 -1.174688
2010-03-24 08:44:03 51°9.592 2°37.366 15.4743 0.067935 0.376017 -1.174688
2010-03-24 08:44:08 51°9.585 2°37.338 15.4909 0.067935 0.376017 -1.174688
2010-03-24 08:44:13 51°9.578 2°37.309 15.5324 0.067935 0.376024 -1.174688
2010-03-24 08:44:18 51°9.57 2°37.281 15.4684 0.067935 0.376017 -1.174688
2010-03-24 08:44:23 51°9.563 2°37.252 15.4657 0.067935 0.37603 -1.174688
2010-03-24 08:44:28 51°9.556 2°37.224 15.4248 0.067935 0.37603 -1.174688
2010-03-24 08:44:33 51°9.549 2°37.196 15.5426 0.067935 0.376017 -1.174688
2010-03-24 08:44:37 51°9.543 2°37.173 15.4848 0.067935 0.37603 -1.174688
2010-03-24 08:44:43 51°9.534 2°37.139 15.5591 0.067935 0.37603 -1.174688
2010-03-24 08:44:48 51°9.527 2°37.111 15.4467 0.067935 0.376037 -1.174688
2010-03-24 08:44:53 51°9.519 2°37.084 15.5734 0.067935 0.376044 -1.174688
2010-03-24 08:44:58 51°9.511 2°37.056 15.457 0.067935 0.376044 -1.174688
2010-03-24 08:45:03 51°9.502 2°37.029 15.508 0.067935 0.376037 -1.174688
2010-03-24 08:45:08 51°9.494 2°37.001 15.5352 0.067935 0.376037 -1.174688
2010-03-24 08:45:13 51°9.486 2°36.974 15.5078 0.067935 0.376037 -1.174688
2010-03-24 08:45:18 51°9.477 2°36.947 15.5007 0.067935 0.376044 -1.174688
2010-03-24 08:45:23 51°9.468 2°36.919 15.5085 0.067935 0.376044 -1.174688
2010-03-24 08:45:28 51°9.46 2°36.893 15.4851 0.067935 0.376044 -1.174688
2010-03-24 08:45:33 51°9.451 2°36.866 15.4821 0.067935 0.376044 -1.174688
2010-03-24 08:45:38 51°9.442 2°36.839 15.4555 0.067935 0.376044 -1.174688
2010-03-24 08:45:43 51°9.433 2°36.812 15.4841 0.067935 0.376044 -1.174688
2010-03-24 08:45:48 51°9.424 2°36.784 15.4596 0.067935 0.376044 -1.174688
2010-03-24 08:45:53 51°9.416 2°36.757 15.5611 0.067935 0.376044 -1.174688
2010-03-24 08:45:57 51°9.409 2°36.735 15.4653 0.067935 0.376044 -1.174688
2010-03-24 08:46:03 51°9.398 2°36.703 15.5096 0.067935 0.376051 -1.174688
2010-03-24 08:46:08 51°9.39 2°36.675 15.5124 0.067935 0.376051 -1.174688
2010-03-24 08:46:13 51°9.381 2°36.648 15.4959 0.067935 0.376057 -1.174688
2010-03-24 08:46:18 51°9.372 2°36.621 15.4462 0.067935 0.376057 -1.174688
2010-03-24 08:46:23 51°9.364 2°36.594 15.4925 0.067935 0.376057 -1.174688
2010-03-24 08:46:28 51°9.355 2°36.567 15.4917 0.067935 0.376057 -1.174688
2010-03-24 08:46:33 51°9.346 2°36.539 15.4295 0.067935 0.376064 -1.174688
2010-03-24 08:46:38 51°9.338 2°36.512 15.5391 0.067935 0.376057 -1.174688
2010-03-24 08:46:43 51°9.329 2°36.485 15.4677 0.067935 0.376064 -1.174688
2010-03-24 08:46:48 51°9.32 2°36.458 15.4951 0.067935 0.376064 -1.174688
2010-03-24 08:46:53 51°9.311 2°36.43 15.5298 0.067935 0.376064 -1.174688
2010-03-24 08:46:58 51°9.303 2°36.403 15.4908 0.067935 0.376064 -1.174688
2010-03-24 08:47:03 51°9.294 2°36.376 15.4806 0.067935 0.376064 -1.174688
2010-03-24 08:47:08 51°9.285 2°36.348 15.4449 0.067935 0.376071 -1.174688
2010-03-24 08:47:13 51°9.276 2°36.321 15.4666 0.067935 0.376064 -1.174688
2010-03-24 08:47:18 51°9.267 2°36.294 15.4698 0.067935 0.376071 -1.174688
2010-03-24 08:47:23 51°9.259 2°36.267 15.551 0.067935 0.376071 -1.174688
2010-03-24 08:47:28 51°9.25 2°36.239 15.4646 0.067935 0.376071 -1.174688
2010-03-24 08:47:33 51°9.241 2°36.212 15.5421 0.067935 0.376078 -1.174688
2010-03-24 08:47:38 51°9.232 2°36.185 15.4862 0.067935 0.376078 -1.174688
2010-03-24 08:47:43 51°9.224 2°36.158 15.5087 0.067935 0.376078 -1.174688
2010-03-24 08:47:48 51°9.215 2°36.13 15.5222 0.067935 0.376078 -1.174688
2010-03-24 08:47:53 51°9.206 2°36.103 15.5408 0.067935 0.376085 -1.174688
2010-03-24 08:47:57 51°9.199 2°36.081 15.5046 0.067935 0.376085 -1.174688
2010-03-24 08:48:03 51°9.189 2°36.049 15.5266 0.067935 0.376085 -1.174688
2010-03-24 08:48:08 51°9.18 2°36.022 15.477 0.067935 0.376085 -1.174688
2010-03-24 08:48:13 51°9.171 2°35.994 15.5612 0.067935 0.376085 -1.174688
2010-03-24 08:48:18 51°9.162 2°35.967 15.502 0.067935 0.376091 -1.174688
2010-03-24 08:48:23 51°9.154 2°35.94 15.5231 0.067935 0.376091 -1.174688
2010-03-24 08:48:28 51°9.145 2°35.913 15.5455 0.067935 0.376091 -1.174688
2010-03-24 08:48:33 51°9.136 2°35.886 15.4856 0.067935 0.376091 -1.174688
2010-03-24 08:48:37 51°9.129 2°35.864 15.511 0.067935 0.376091 -1.174688
2010-03-24 08:48:43 51°9.118 2°35.832 15.5558 0.067935 0.376091 -1.174688
2010-03-24 08:48:48 51°9.109 2°35.805 15.5297 0.067935 0.376091 -1.174688
2010-03-24 08:48:53 51°9.101 2°35.778 15.514 0.067935 0.376098 -1.174688
2010-03-24 08:48:58 51°9.092 2°35.75 15.4908 0.067935 0.376098 -1.174688
2010-03-24 08:49:03 51°9.083 2°35.723 15.5531 0.067935 0.376098 -1.174688
2010-03-24 08:49:08 51°9.075 2°35.695 15.5089 0.067935 0.376105 -1.174688
2010-03-24 08:49:13 51°9.066 2°35.668 15.4878 0.067935 0.376105 -1.174688
2010-03-24 08:49:18 51°9.057 2°35.641 15.5068 0.067935 0.376112 -1.174688
2010-03-24 08:49:23 51°9.048 2°35.614 15.5009 0.067935 0.376105 -1.174688
2010-03-24 08:49:28 51°9.04 2°35.586 15.5331 0.067935 0.376105 -1.174688
2010-03-24 08:49:33 51°9.031 2°35.559 15.5069 0.067935 0.376112 -1.174688
2010-03-24 08:49:38 51°9.022 2°35.532 15.5448 0.067935 0.376112 -1.174688
2010-03-24 08:49:43 51°9.013 2°35.505 15.5126 0.067935 0.376112 -1.174688
2010-03-24 08:49:48 51°9.005 2°35.477 15.4981 0.067935 0.376112 -1.174688
2010-03-24 08:49:53 51°8.996 2°35.45 15.5247 0.067935 0.376118 -1.174688
2010-03-24 08:49:58 51°8.987 2°35.423 15.5625 0.067935 0.376118 -1.174688
2010-03-24 08:50:03 51°8.979 2°35.395 15.5021 0.067935 0.376118 -1.174688
2010-03-24 08:50:08 51°8.97 2°35.368 15.5599 0.067935 0.376118 -1.174688
2010-03-24 08:50:13 51°8.961 2°35.341 15.5142 0.067935 0.376125 -1.174688
2010-03-24 08:50:18 51°8.952 2°35.313 15.567 0.067935 0.376125 -1.174688
2010-03-24 08:50:23 51°8.944 2°35.286 15.5972 0.067935 0.376132 -1.174688
2010-03-24 08:50:28 51°8.934 2°35.259 15.497 0.067935 0.376132 -1.174688
2010-03-24 08:50:33 51°8.925 2°35.232 15.5785 0.067935 0.376132 -1.174688
2010-03-24 08:50:37 51°8.918 2°35.211 15.4753 0.067935 0.376139 -1.174688
2010-03-24 08:50:43 51°8.906 2°35.179 15.537 0.067935 0.376139 -1.174688
2010-03-24 08:50:48 51°8.897 2°35.152 15.5176 0.067935 0.376139 -1.174688
2010-03-24 08:50:53 51°8.887 2°35.126 15.5071 0.067935 0.376139 -1.174688
2010-03-24 08:50:58 51°8.878 2°35.099 15.5331 0.067935 0.376139 -1.174688
2010-03-24 08:51:03 51°8.868 2°35.073 15.4518 0.067935 0.376145 -1.174688
2010-03-24 08:51:08 51°8.858 2°35.046 15.4986 0.067935 0.376145 -1.174688
2010-03-24 08:51:13 51°8.849 2°35.02 15.5383 0.067935 0.376145 -1.174688
2010-03-24 08:51:18 51°8.839 2°34.993 15.4807 0.067935 0.376145 -1.174688
2010-03-24 08:51:23 51°8.829 2°34.967 15.519 0.067935 0.376145 -1.174688
2010-03-24 08:51:28 51°8.82 2°34.94 15.5645 0.067935 0.376145 -1.174688
2010-03-24 08:51:33 51°8.81 2°34.914 15.5284 0.067935 0.376152 -1.174688
2010-03-24 08:51:38 51°8.8 2°34.887 15.4978 0.067935 0.376152 -1.174688
2010-03-24 08:51:43 51°8.791 2°34.861 15.575 0.067935 0.376152 -1.174688
2010-03-24 08:51:48 51°8.781 2°34.834 15.4733 0.067935 0.376159 -1.174688
2010-03-24 08:51:53 51°8.771 2°34.808 15.5566 0.067935 0.376159 -1.174688
2010-03-24 08:51:58 51°8.762 2°34.781 15.5624 0.067935 0.376159 -1.174688
2010-03-24 08:52:03 51°8.752 2°34.755 15.5394 0.067935 0.376166 -1.174688
2010-03-24 08:52:08 51°8.742 2°34.728 15.5433 0.067935 0.376166 -1.174688
2010-03-24 08:52:13 51°8.733 2°34.701 15.5428 0.067935 0.376166 -1.174688
2010-03-24 08:52:18 51°8.723 2°34.675 15.5357 0.067935 0.376172 -1.174688
2010-03-24 08:52:23 51°8.713 2°34.649 15.5015 0.067935 0.376172 -1.174688
2010-03-24 08:52:28 51°8.703 2°34.622 15.5854 0.067935 0.376172 -1.174688
2010-03-24 08:52:33 51°8.694 2°34.596 15.503 0.067935 0.376172 -1.174688
2010-03-24 08:52:38 51°8.684 2°34.57 15.527 0.067935 0.376179 -1.174688
2010-03-24 08:52:43 51°8.674 2°34.543 15.5596 0.067935 0.376179 -1.174688
2010-03-24 08:52:48 51°8.664 2°34.517 15.4665 0.067935 0.376179 -1.174688
2010-03-24 08:52:53 51°8.654 2°34.491 15.5545 0.067935 0.376179 -1.174688
2010-03-24 08:52:58 51°8.645 2°34.464 15.5326 0.067935 0.376179 -1.174688
2010-03-24 08:53:03 51°8.635 2°34.438 15.5656 0.067935 0.376186 -1.174688
2010-03-24 08:53:08 51°8.625 2°34.412 15.4939 0.067935 0.376186 -1.174688
2010-03-24 08:53:13 51°8.616 2°34.385 15.5495 0.067935 0.376186 -1.174688
2010-03-24 08:53:18 51°8.606 2°34.359 15.5757 0.067935 0.376193 -1.174688
2010-03-24 08:53:23 51°8.596 2°34.333 15.6055 0.067935 0.376193 -1.174688
2010-03-24 08:53:28 51°8.586 2°34.307 15.5171 0.067935 0.376193 -1.174688
2010-03-24 08:53:33 51°8.576 2°34.281 15.5576 0.067935 0.376193 -1.174688
2010-03-24 08:53:38 51°8.566 2°34.255 15.5582 0.067935 0.3762 -1.174688
2010-03-24 08:53:43 51°8.555 2°34.23 15.4944 0.067935 0.3762 -1.174688
2010-03-24 08:53:48 51°8.545 2°34.205 15.5825 0.067935 0.3762 -1.174688
2010-03-24 08:53:53 51°8.534 2°34.179 15.5068 0.067935 0.3762 -1.174688
2010-03-24 08:53:58 51°8.524 2°34.154 15.4608 0.067935 0.3762 -1.174688
2010-03-24 08:54:03 51°8.513 2°34.129 15.5595 0.067935 0.3762 -1.174688
2010-03-24 08:54:08 51°8.502 2°34.104 15.5333 0.067935 0.376206 -1.174688
2010-03-24 08:54:13 51°8.492 2°34.078 15.5229 0.067935 0.376206 -1.174688
2010-03-24 08:54:18 51°8.481 2°34.053 15.513 0.067935 0.376206 -1.174688
2010-03-24 08:54:23 51°8.471 2°34.028 15.5766 0.067935 0.376206 -1.174688
2010-03-24 08:54:28 51°8.46 2°34.002 15.5388 0.067935 0.376206 -1.174688
2010-03-24 08:54:33 51°8.449 2°33.977 15.5096 0.067935 0.376206 -1.174688
2010-03-24 08:54:38 51°8.439 2°33.951 15.5482 0.067935 0.376213 -1.174688
2010-03-24 08:54:43 51°8.428 2°33.926 15.5657 0.067935 0.376213 -1.174688
2010-03-24 08:54:48 51°8.418 2°33.901 15.4844 0.067935 0.376213 -1.174688
2010-03-24 08:54:53 51°8.407 2°33.876 15.5949 0.067935 0.37622 -1.174688
2010-03-24 08:54:58 51°8.396 2°33.851 15.5491 0.067935 0.37622 -1.174688
2010-03-24 08:55:03 51°8.385 2°33.826 15.6314 0.067935 0.37622 -1.174688
2010-03-24 08:55:08 51°8.374 2°33.801 15.5574 0.067935 0.376227 -1.174688
2010-03-24 08:55:13 51°8.363 2°33.776 15.6035 0.067935 0.376227 -1.174688
2010-03-24 08:55:18 51°8.351 2°33.752 15.6354 0.067935 0.376227 -1.174688
2010-03-24 08:55:23 51°8.34 2°33.728 15.6023 0.067935 0.376227 -1.174688
2010-03-24 08:55:28 51°8.327 2°33.705 15.6655 0.067935 0.376227 -1.174688
2010-03-24 08:55:33 51°8.315 2°33.682 15.5349 0.067935 0.37624 -1.174688
2010-03-24 08:55:38 51°8.302 2°33.66 15.6345 0.067935 0.376233 -1.174688
2010-03-24 08:55:43 51°8.289 2°33.638 15.4858 0.067935 0.37624 -1.174688
2010-03-24 08:55:48 51°8.275 2°33.617 15.5844 0.067935 0.376233 -1.174688
2010-03-24 08:55:53 51°8.261 2°33.596 15.5611 0.067935 0.376233 -1.174688
2010-03-24 08:55:58 51°8.247 2°33.576 15.5569 0.067935 0.376233 -1.174688
2010-03-24 08:56:03 51°8.233 2°33.555 15.565 0.067935 0.376233 -1.174688
2010-03-24 08:56:08 51°8.219 2°33.535 15.5083 0.067935 0.376233 -1.174688
2010-03-24 08:56:13 51°8.205 2°33.515 15.5741 0.067935 0.376233 -1.174688
2010-03-24 08:56:18 51°8.191 2°33.495 15.523 0.067935 0.37624 -1.174688
2010-03-24 08:56:23 51°8.176 2°33.475 15.4982 0.067935 0.376233 -1.174688
2010-03-24 08:56:28 51°8.162 2°33.455 15.4947 0.067935 0.376233 -1.174688
2010-03-24 08:56:33 51°8.148 2°33.436 15.5597 0.067935 0.376233 -1.174688
2010-03-24 08:56:38 51°8.134 2°33.416 15.6035 0.067935 0.37624 -1.174688
2010-03-24 08:56:43 51°8.119 2°33.396 15.532 0.067935 0.37624 -1.174688
2010-03-24 08:56:48 51°8.105 2°33.376 15.5528 0.067935 0.37624 -1.174688
2010-03-24 08:56:53 51°8.091 2°33.356 15.5941 0.067935 0.37624 -1.174688
2010-03-24 08:56:58 51°8.077 2°33.336 15.5863 0.067935 0.37624 -1.174688
2010-03-24 08:57:03 51°8.062 2°33.316 15.5634 0.067935 0.376247 -1.174688
2010-03-24 08:57:08 51°8.048 2°33.296 15.5428 0.067935 0.376247 -1.174688
2010-03-24 08:57:13 51°8.034 2°33.276 15.5758 0.067935 0.37624 -1.174688
2010-03-24 08:57:18 51°8.02 2°33.256 15.563 0.067935 0.376247 -1.174688
2010-03-24 08:57:23 51°8.006 2°33.236 15.5192 0.067935 0.376247 -1.174688
2010-03-24 08:57:28 51°7.992 2°33.216 15.5996 0.067935 0.376247 -1.174688
2010-03-24 08:57:33 51°7.977 2°33.196 15.4581 0.067935 0.376247 -1.174688
2010-03-24 08:57:38 51°7.963 2°33.177 15.4343 0.067935 0.376254 -1.174688
2010-03-24 08:57:43 51°7.95 2°33.159 15.5366 0.067935 0.37626 -1.174688
2010-03-24 08:57:48 51°7.938 2°33.142 15.5737 0.067935 0.376267 -1.174688
2010-03-24 08:57:53 51°7.927 2°33.128 15.6673 0.067935 0.376274 -1.174688
2010-03-24 08:57:57 51°7.919 2°33.118 15.6882 0.067935 0.376274 -1.174688
2010-03-24 08:58:03 51°7.906 2°33.105 15.6587 0.067935 0.376281 -1.174688
2010-03-24 08:58:08 51°7.897 2°33.097 15.6561 0.067935 0.376288 -1.174688